M I D A S
Marine Information and Data Acquisition System
Tripno 2299 of the Zeeleeuw from 2012-01-11 06:06:48 to 2012-01-11 17:57:11
Back to CruiseResearch ActivitiesStationsMapUnderway DataData graphs

EquipmentUnitsComment
TimeDGPSUTC
LatitudeDGPSDM.mWGS84
LongitudeDGPSDM.mWGS84
TemperatureSBE03/SBE38deg celciusITS90
ConductivitySBE21S/mITS90
SalinitySBE21 Practical Salinity Units
ChlorophylAChelsea fluorimeterg/lCalibrated in Aceton
Missing or incorrect values are displayed as -999
Sea surface data collected by the RV Zeeleeuw from 2012-01-11 06:01:34 to 2012-01-11 18:05:45
                                                                                    Next 1000 lines
Time Latitude Longitude Temperature Conductivity Salinity ChlorophylA
2012-01-11 06:01:44 51°13.637 2°56.011 15.3745 0.027905 0.147147 -2.458615
2012-01-11 06:01:48 51°13.637 2°56.008 15.3735 0.027905 0.147149 -2.458615
2012-01-11 06:01:53 51°13.639 2°56.002 15.3528 0.027905 0.147151 -2.458615
2012-01-11 06:01:59 51°13.64 2°55.995 15.3696 0.027905 0.147158 -2.458615
2012-01-11 06:02:04 51°13.642 2°55.987 15.3952 0.027905 0.147165 -2.458615
2012-01-11 06:02:10 51°13.644 2°55.977 15.4378 0.027905 0.147165 -2.458615
2012-01-11 06:02:16 51°13.647 2°55.967 15.4238 0.027803 0.146629 -2.458615
2012-01-11 06:02:21 51°13.648 2°55.959 15.4475 0.027905 0.147173 -2.458615
2012-01-11 06:02:26 51°13.65 2°55.95 15.3718 0.027803 0.146634 -2.458615
2012-01-11 06:02:31 51°13.652 2°55.94 15.4296 0.027803 0.146638 -2.458615
2012-01-11 06:02:36 51°13.653 2°55.931 15.4194 0.027803 0.146641 -2.458615
2012-01-11 06:02:41 51°13.654 2°55.921 15.4553 0.027803 0.146641 -2.458615
2012-01-11 06:02:46 51°13.656 2°55.911 15.422 0.027803 0.146643 -2.458615
2012-01-11 06:02:51 51°13.658 2°55.902 15.4499 0.027803 0.146648 -2.458615
2012-01-11 06:02:56 51°13.66 2°55.893 15.4277 0.027803 0.146652 -2.458615
2012-01-11 06:03:01 51°13.663 2°55.883 15.4434 0.027803 0.146655 -2.458615
2012-01-11 06:03:06 51°13.665 2°55.874 15.4356 0.027803 0.146659 -2.458615
2012-01-11 06:03:11 51°13.668 2°55.865 15.4403 0.027803 0.146659 -2.458615
2012-01-11 06:03:16 51°13.671 2°55.855 15.4478 0.027803 0.146662 -2.458615
2012-01-11 06:03:21 51°13.674 2°55.846 15.4594 0.027803 0.146666 -2.458615
2012-01-11 06:03:26 51°13.678 2°55.836 15.4294 0.027803 0.146669 -2.458615
2012-01-11 06:03:31 51°13.682 2°55.827 15.4316 0.027803 0.146674 -2.458615
2012-01-11 06:03:36 51°13.686 2°55.817 15.4588 0.027803 0.146676 -2.458615
2012-01-11 06:03:41 51°13.691 2°55.808 15.4502 0.027803 0.146676 -2.458615
2012-01-11 06:03:46 51°13.695 2°55.798 15.4493 0.027803 0.146678 -2.458615
2012-01-11 06:03:51 51°13.7 2°55.789 15.4293 0.027803 0.146683 -2.458615
2012-01-11 06:03:56 51°13.705 2°55.78 15.4185 0.027803 0.146685 -2.458615
2012-01-11 06:04:01 51°13.71 2°55.771 15.4313 0.027803 0.146688 -2.458615
2012-01-11 06:04:06 51°13.716 2°55.762 15.4244 0.027803 0.146692 -2.458615
2012-01-11 06:04:12 51°13.723 2°55.751 15.4193 0.027803 0.146692 -2.458615
2012-01-11 06:04:16 51°13.728 2°55.744 15.4127 0.027803 0.146695 -2.458615
2012-01-11 06:04:21 51°13.733 2°55.736 15.437 0.027803 0.146697 -2.458615
2012-01-11 06:04:26 51°13.74 2°55.727 15.4375 0.027803 0.146702 -2.458615
2012-01-11 06:04:31 51°13.746 2°55.719 15.4616 0.027803 0.146706 -2.458615
2012-01-11 06:04:36 51°13.752 2°55.71 15.4445 0.027803 0.146706 -2.458615
2012-01-11 06:04:41 51°13.758 2°55.702 15.4511 0.027803 0.146706 -2.458615
2012-01-11 06:04:46 51°13.764 2°55.694 15.4463 0.027803 0.146711 -2.458615
2012-01-11 06:04:51 51°13.77 2°55.686 15.4521 0.027803 0.146713 -2.458615
2012-01-11 06:04:56 51°13.776 2°55.679 15.4589 0.027803 0.146718 -2.458615
2012-01-11 06:05:01 51°13.783 2°55.671 15.45 0.027803 0.146721 -2.458615
2012-01-11 06:05:06 51°13.789 2°55.664 15.4395 0.027803 0.146723 -2.458615
2012-01-11 06:05:11 51°13.796 2°55.658 15.4473 0.027803 0.146723 -2.458615
2012-01-11 06:05:16 51°13.803 2°55.652 15.4562 0.027803 0.146728 -2.458615
2012-01-11 06:05:22 51°13.811 2°55.645 15.4543 0.027803 0.14673 -2.458615
2012-01-11 06:05:26 51°13.817 2°55.641 15.4414 0.027803 0.146735 -2.458615
2012-01-11 06:05:31 51°13.825 2°55.637 15.4437 0.027803 0.146737 -2.458615
2012-01-11 06:05:36 51°13.833 2°55.633 15.4478 0.027803 0.146742 -2.458615
2012-01-11 06:05:41 51°13.84 2°55.63 15.4656 0.027803 0.146742 -2.458615
2012-01-11 06:05:47 51°13.85 2°55.627 15.4498 0.027803 0.146746 -2.458615
2012-01-11 06:05:51 51°13.856 2°55.625 15.4701 0.027803 0.146749 -2.458615
2012-01-11 06:05:56 51°13.864 2°55.623 15.461 0.027803 0.146751 -2.458615
2012-01-11 06:06:01 51°13.872 2°55.622 15.4524 0.027803 0.146753 -2.458615
2012-01-11 06:06:07 51°13.881 2°55.622 15.4303 0.027803 0.146758 -2.458615
2012-01-11 06:06:12 51°13.889 2°55.622 15.4416 0.027803 0.146758 -2.458615
2012-01-11 06:06:16 51°13.894 2°55.622 15.4781 0.027803 0.146763 -2.458615
2012-01-11 06:06:21 51°13.901 2°55.622 15.48 0.027803 0.146765 -2.458615
2012-01-11 06:06:26 51°13.908 2°55.623 15.4633 0.027803 0.14677 -2.458615
2012-01-11 06:06:31 51°13.914 2°55.625 15.4428 0.027803 0.146772 -2.458615
2012-01-11 06:06:36 51°13.92 2°55.626 15.4399 0.027803 0.146775 -2.458615
2012-01-11 06:06:41 51°13.926 2°55.628 15.4387 0.027803 0.146775 -2.458615
2012-01-11 06:06:46 51°13.932 2°55.63 15.4509 0.027803 0.146779 -2.458615
2012-01-11 06:06:51 51°13.937 2°55.633 15.4599 0.027803 0.146782 -2.458615
2012-01-11 06:06:56 51°13.942 2°55.635 15.4689 0.027803 0.146786 -2.458615
2012-01-11 06:07:01 51°13.946 2°55.637 15.4524 0.027803 0.146789 -2.458615
2012-01-11 06:07:06 51°13.951 2°55.64 15.4531 0.027803 0.146793 -2.458615
2012-01-11 06:07:11 51°13.955 2°55.642 15.4623 0.027803 0.146793 -2.458615
2012-01-11 06:07:16 51°13.959 2°55.645 15.46 0.027803 0.146793 -2.458615
2012-01-11 06:07:21 51°13.962 2°55.647 15.4853 0.027803 0.146798 -2.458615
2012-01-11 06:07:26 51°13.965 2°55.65 15.4482 0.027803 0.1468 -2.458615
2012-01-11 06:07:31 51°13.968 2°55.652 15.4733 0.027803 0.146803 -2.458615
2012-01-11 06:07:36 51°13.971 2°55.654 15.4536 0.027803 0.146808 -2.458615
2012-01-11 06:07:41 51°13.973 2°55.656 15.4614 0.027803 0.146808 -2.458615
2012-01-11 06:07:46 51°13.975 2°55.658 15.4426 0.027803 0.14681 -2.458615
2012-01-11 06:07:51 51°13.976 2°55.659 15.461 0.027803 0.146812 -2.458615
2012-01-11 06:07:56 51°13.977 2°55.66 15.4755 0.027803 0.146815 -2.458615
2012-01-11 06:08:01 51°13.978 2°55.66 15.4784 0.027803 0.146819 -2.458615
2012-01-11 06:08:06 51°13.978 2°55.659 15.4736 0.027803 0.146822 -2.458615
2012-01-11 06:08:11 51°13.978 2°55.657 15.2665 0.027803 0.146822 -2.458615
2012-01-11 06:08:16 51°13.977 2°55.653 15.3213 0.027803 0.146822 -2.458615
2012-01-11 06:08:21 51°13.977 2°55.65 15.1879 0.027803 0.146824 -2.458615
2012-01-11 06:08:27 51°13.977 2°55.644 15.0965 0.027803 0.146824 -2.458615
2012-01-11 06:08:32 51°13.978 2°55.639 15.1237 0.027803 0.146829 -2.458615
2012-01-11 06:08:36 51°13.979 2°55.634 15.2982 0.027803 0.146831 -2.458615
2012-01-11 06:08:41 51°13.98 2°55.628 15.3098 0.027803 0.146831 -2.458615
2012-01-11 06:08:46 51°13.982 2°55.621 15.3641 0.027803 0.146833 -2.458615
2012-01-11 06:08:51 51°13.984 2°55.614 15.3745 0.0277 0.146294 -2.458615
2012-01-11 06:08:56 51°13.987 2°55.606 15.3784 0.0277 0.146298 -2.458615
2012-01-11 06:09:01 51°13.99 2°55.598 15.3531 0.0277 0.146298 -2.458615
2012-01-11 06:09:06 51°13.994 2°55.59 15.3538 0.0277 0.146303 -2.458615
2012-01-11 06:09:11 51°13.998 2°55.581 15.3607 0.0277 0.146303 -2.458615
2012-01-11 06:09:16 51°14.002 2°55.573 15.3687 0.0277 0.146303 -2.458615
2012-01-11 06:09:21 51°14.007 2°55.564 15.3797 0.0277 0.146308 -2.458615
2012-01-11 06:09:26 51°14.012 2°55.555 15.3741 0.0277 0.146308 -2.458615
2012-01-11 06:09:31 51°14.017 2°55.546 15.372 0.0277 0.146313 -2.458615
2012-01-11 06:09:36 51°14.022 2°55.537 15.3704 0.0277 0.146315 -2.458615
2012-01-11 06:09:41 51°14.028 2°55.528 15.342 0.0277 0.146315 -2.458615
2012-01-11 06:09:46 51°14.034 2°55.518 14.6255 0.0277 0.146315 -2.458615
2012-01-11 06:09:51 51°14.04 2°55.509 12.3953 0.0277 0.146341 -2.458615
2012-01-11 06:09:56 51°14.046 2°55.501 11.5225 0.0277 0.146381 -2.458615
2012-01-11 06:10:01 51°14.052 2°55.492 10.4243 0.0277 0.146468 -2.458615
2012-01-11 06:10:06 51°14.059 2°55.484 9.7392 3.955891 28.979447 -2.458615
2012-01-11 06:10:11 51°14.066 2°55.476 9.4308 3.955891 28.979447 -2.458615
2012-01-11 06:10:16 51°14.074 2°55.468 9.1592 4.393608 34.038486 -2.458615
2012-01-11 06:10:21 51°14.081 2°55.46 8.9841 4.414155 34.905716 -2.458615
2012-01-11 06:10:26 51°14.089 2°55.452 8.91 4.344685 35.364767 -2.458615
2012-01-11 06:10:31 51°14.097 2°55.444 8.7913 4.146977 34.932557 -2.458615
2012-01-11 06:10:36 51°14.106 2°55.436 8.71 3.929029 33.681619 -2.458615
2012-01-11 06:10:41 51°14.115 2°55.428 8.5883 3.929029 33.681619 -2.458615
2012-01-11 06:10:46 51°14.123 2°55.42 8.5587 3.72713 32.702011 -2.458615
2012-01-11 06:10:51 51°14.132 2°55.411 8.4905 3.598202 32.014694 -2.458615
2012-01-11 06:10:56 51°14.141 2°55.402 8.5544 3.511027 31.607752 -2.458615
2012-01-11 06:11:01 51°14.151 2°55.394 8.4724 3.442913 31.28212 -2.458615
2012-01-11 06:11:06 51°14.16 2°55.385 8.4764 3.384742 30.909189 -2.458615
2012-01-11 06:11:11 51°14.169 2°55.377 8.3448 3.384742 30.909189 -2.458615
2012-01-11 06:11:16 51°14.18 2°55.368 8.3564 3.332064 30.584714 -2.458615
2012-01-11 06:11:21 51°14.19 2°55.361 8.2879 3.301536 30.418907 -2.458615
2012-01-11 06:11:26 51°14.2 2°55.352 8.2491 3.247416 29.969386 -2.458615
2012-01-11 06:11:31 51°14.211 2°55.344 8.2101 3.215858 29.721788 -2.458615
2012-01-11 06:11:36 51°14.222 2°55.337 8.261 3.185336 29.466748 -2.458615
2012-01-11 06:11:41 51°14.233 2°55.329 8.1921 3.185336 29.466748 -2.458615
2012-01-11 06:11:46 51°14.244 2°55.322 8.2261 3.15792 29.236991 -2.458615
2012-01-11 06:11:51 51°14.256 2°55.315 8.1515 3.127608 28.995676 -2.458615
2012-01-11 06:11:56 51°14.268 2°55.308 8.227 3.106299 28.836409 -2.458615
2012-01-11 06:12:01 51°14.279 2°55.3 8.1362 3.086541 28.682334 -2.458615
2012-01-11 06:12:06 51°14.29 2°55.29 8.1377 3.07237 28.576518 -2.458615
2012-01-11 06:12:11 51°14.301 2°55.281 8.1193 3.07237 28.576518 -2.458615
2012-01-11 06:12:16 51°14.312 2°55.27 8.0991 3.054786 28.427348 -2.458615
2012-01-11 06:12:21 51°14.322 2°55.258 8.1127 3.048684 28.380715 -2.458615
2012-01-11 06:12:27 51°14.336 2°55.244 8.1039 3.044547 28.375494 -2.458615
2012-01-11 06:12:31 51°14.344 2°55.234 8.0713 3.039789 28.34482 -2.458615
2012-01-11 06:12:36 51°14.355 2°55.221 8.0775 3.036894 28.342096 -2.458615
2012-01-11 06:12:41 51°14.366 2°55.209 8.0615 3.036894 28.342096 -2.458615
2012-01-11 06:12:47 51°14.379 2°55.193 8.109 3.035756 28.345035 -2.458615
2012-01-11 06:12:51 51°14.387 2°55.182 8.0448 3.041135 28.422577 -2.458615
2012-01-11 06:12:56 51°14.398 2°55.168 8.0424 3.043617 28.463689 -2.458615
2012-01-11 06:13:01 51°14.408 2°55.153 8.0226 3.041445 28.456745 -2.458615
2012-01-11 06:13:06 51°14.419 2°55.138 8.0273 3.036377 28.411746 -2.458615
2012-01-11 06:13:12 51°14.432 2°55.121 8.019 3.036377 28.411746 -2.458615
2012-01-11 06:13:16 51°14.441 2°55.109 8.0117 3.023449 28.287716 -2.458615
2012-01-11 06:13:21 51°14.452 2°55.095 8.006 3.001833 28.071785 -2.458615
2012-01-11 06:13:26 51°14.464 2°55.08 7.9801 2.983527 27.893742 -2.458615
2012-01-11 06:13:31 51°14.475 2°55.065 7.9882 2.968842 27.756671 -2.458615
2012-01-11 06:13:36 51°14.487 2°55.05 8.0033 2.960258 27.682517 -2.458615
2012-01-11 06:13:41 51°14.499 2°55.035 8.0452 2.960258 27.682517 -2.458615
2012-01-11 06:13:46 51°14.511 2°55.02 7.9998 2.952812 27.613597 -2.458615
2012-01-11 06:13:51 51°14.523 2°55.006 8.0324 2.948779 27.585619 -2.458615
2012-01-11 06:13:56 51°14.536 2°54.991 8.0086 2.948056 27.586762 -2.458615
2012-01-11 06:14:00 51°14.545 2°54.978 7.9642 2.946401 27.581886 -2.458615
2012-01-11 06:14:05 51°14.557 2°54.962 8.0109 2.947229 27.594742 -2.458615
2012-01-11 06:14:10 51°14.57 2°54.946 7.9983 2.947229 27.594742 -2.458615
2012-01-11 06:14:15 51°14.582 2°54.93 8.0187 2.951468 27.637824 -2.458615
2012-01-11 06:14:20 51°14.595 2°54.915 8.0139 2.955295 27.676638 -2.458615
2012-01-11 06:14:24 51°14.606 2°54.903 8.0204 2.95333 27.654175 -2.458615
2012-01-11 06:14:29 51°14.619 2°54.888 8.0263 2.950538 27.627489 -2.458615
2012-01-11 06:14:34 51°14.633 2°54.875 8.0139 2.942058 27.549949 -2.458615
2012-01-11 06:14:40 51°14.65 2°54.858 8.0162 2.942058 27.549949 -2.458615
2012-01-11 06:14:44 51°14.661 2°54.848 8.0127 2.929338 27.419305 -2.458615
2012-01-11 06:14:49 51°14.674 2°54.834 8.0323 2.923961 27.360944 -2.458615
2012-01-11 06:14:54 51°14.689 2°54.822 8.0227 2.935336 27.476226 -2.458615
2012-01-11 06:14:59 51°14.703 2°54.809 8.0213 2.944643 27.568038 -2.458615
2012-01-11 06:15:04 51°14.718 2°54.796 8.0573 2.948469 27.607561 -2.458615
2012-01-11 06:15:08 51°14.729 2°54.785 8.0289 2.948469 27.607561 -2.458615
2012-01-11 06:15:13 51°14.743 2°54.772 8.0675 2.952916 27.657105 -2.458615
2012-01-11 06:15:18 51°14.758 2°54.759 8.0471 2.958708 27.71768 -2.458615
2012-01-11 06:15:23 51°14.772 2°54.746 8.0803 2.966154 27.795386 -2.458615
2012-01-11 06:15:28 51°14.787 2°54.734 8.0646 2.978253 27.919818 -2.458615
2012-01-11 06:15:33 51°14.802 2°54.72 8.0576 3.042688 28.586757 -2.458615
2012-01-11 06:15:38 51°14.817 2°54.708 8.0677 3.042688 28.586757 -2.458615
2012-01-11 06:15:43 51°14.832 2°54.694 8.0933 3.069375 28.858608 -2.458615
2012-01-11 06:15:48 51°14.846 2°54.682 8.0697 3.084063 29.005965 -2.458615
2012-01-11 06:15:52 51°14.858 2°54.67 8.0613 3.093993 29.102382 -2.458615
2012-01-11 06:15:58 51°14.875 2°54.653 8.051 3.101441 29.178307 -2.458615
2012-01-11 06:16:03 51°14.889 2°54.637 8.0293 3.114062 29.309591 -2.458615
2012-01-11 06:16:08 51°14.903 2°54.622 8.0528 3.114062 29.309591 -2.458615
2012-01-11 06:16:12 51°14.914 2°54.609 8.0769 3.124303 29.416183 -2.458615
2012-01-11 06:16:18 51°14.931 2°54.593 8.0671 3.134131 29.513906 -2.458615
2012-01-11 06:16:23 51°14.946 2°54.58 8.0543 3.138269 29.557003 -2.458615
2012-01-11 06:16:28 51°14.961 2°54.567 8.0709 3.140545 29.58225 -2.458615
2012-01-11 06:16:32 51°14.973 2°54.558 8.0399 3.141684 29.600272 -2.458615
2012-01-11 06:16:38 51°14.991 2°54.544 8.0421 3.141684 29.600272 -2.458615
2012-01-11 06:16:43 51°15.006 2°54.533 8.0268 3.142097 29.606898 -2.458615
2012-01-11 06:16:48 51°15.021 2°54.522 8.035 3.149236 29.681299 -2.458615
2012-01-11 06:16:52 51°15.034 2°54.515 8.0211 3.150684 29.69253 -2.458615
2012-01-11 06:16:58 51°15.052 2°54.503 8.0298 3.24846 30.716423 -2.458615
2012-01-11 06:17:03 51°15.067 2°54.492 8.0226 3.252599 30.760572 -2.458615
2012-01-11 06:17:08 51°15.082 2°54.482 8.0254 3.252599 30.760572 -2.458615
2012-01-11 06:17:12 51°15.094 2°54.473 8.0245 3.254668 30.785458 -2.458615
2012-01-11 06:17:18 51°15.113 2°54.461 8.0183 3.256635 30.812481 -2.458615
2012-01-11 06:17:23 51°15.128 2°54.45 8.0364 3.258497 30.837629 -2.458615
2012-01-11 06:17:28 51°15.143 2°54.44 8.031 3.205312 30.284769 -2.458615
2012-01-11 06:17:32 51°15.156 2°54.431 8.0276 3.26512 30.91512 -2.458615
2012-01-11 06:17:38 51°15.174 2°54.416 8.0127 3.26512 30.91512 -2.458615
2012-01-11 06:17:43 51°15.189 2°54.404 8.0216 3.264913 30.916982 -2.458615
2012-01-11 06:17:48 51°15.203 2°54.392 8.0194 3.267707 30.950328 -2.458615
2012-01-11 06:17:52 51°15.215 2°54.383 8.0157 3.268742 30.960378 -2.458615
2012-01-11 06:17:58 51°15.233 2°54.369 8.0162 3.269363 30.968508 -2.458615
2012-01-11 06:18:03 51°15.248 2°54.356 8.0303 3.271329 30.987523 -2.458615
2012-01-11 06:18:08 51°15.263 2°54.344 8.0208 3.271329 30.987523 -2.458615
2012-01-11 06:18:12 51°15.275 2°54.333 8.0309 3.272674 31.004067 -2.458615
2012-01-11 06:18:18 51°15.292 2°54.319 8.0315 3.274434 31.024959 -2.458615
2012-01-11 06:18:23 51°15.307 2°54.306 8.0288 3.277331 31.057807 -2.458615
2012-01-11 06:18:28 51°15.322 2°54.294 8.0217 3.277435 31.061325 -2.458615
2012-01-11 06:18:33 51°15.336 2°54.281 8.0288 3.277952 31.069191 -2.458615
2012-01-11 06:18:38 51°15.351 2°54.269 8.026 3.277952 31.069191 -2.458615
2012-01-11 06:18:43 51°15.366 2°54.256 8.0172 3.280022 31.089302 -2.458615
2012-01-11 06:18:48 51°15.381 2°54.244 8.0168 3.277331 31.061049 -2.458615
2012-01-11 06:18:52 51°15.393 2°54.233 8.0203 3.277228 31.058341 -2.458615
2012-01-11 06:18:58 51°15.41 2°54.217 8.0239 3.276607 31.050202 -2.458615
2012-01-11 06:19:03 51°15.425 2°54.203 8.0182 3.275261 31.036079 -2.458615
2012-01-11 06:19:08 51°15.439 2°54.189 8.0444 3.275261 31.036079 -2.458615
2012-01-11 06:19:12 51°15.451 2°54.177 8.0405 3.275468 31.038251 -2.458615
2012-01-11 06:19:18 51°15.468 2°54.16 8.0289 3.275675 31.044475 -2.458615
2012-01-11 06:19:23 51°15.483 2°54.145 8.0324 3.277849 31.068915 -2.458615
2012-01-11 06:19:28 51°15.498 2°54.13 8.0313 3.279608 31.089013 -2.458615
2012-01-11 06:19:33 51°15.512 2°54.115 8.0435 3.283333 31.128142 -2.458615
2012-01-11 06:19:38 51°15.527 2°54.1 8.0411 3.283333 31.128142 -2.458615
2012-01-11 06:19:43 51°15.541 2°54.085 8.0431 3.285196 31.146083 -2.458615
2012-01-11 06:19:48 51°15.555 2°54.07 8.0571 3.288404 31.175715 -2.458615
2012-01-11 06:19:52 51°15.567 2°54.059 8.0563 3.289439 31.185772 -2.458615
2012-01-11 06:19:58 51°15.584 2°54.041 8.0544 3.293061 31.225454 -2.458615
2012-01-11 06:20:03 51°15.598 2°54.027 8.0711 3.295751 31.252096 -2.458615
2012-01-11 06:20:08 51°15.613 2°54.014 8.063 3.299787 31.290426 -2.458615
2012-01-11 06:20:12 51°15.625 2°54.003 8.0773 3.299787 31.290426 -2.458615
2012-01-11 06:20:18 51°15.644 2°53.987 8.0593 3.304341 31.335828 -2.458615
2012-01-11 06:20:23 51°15.659 2°53.974 8.0695 3.306617 31.357303 -2.458615
2012-01-11 06:20:28 51°15.674 2°53.961 8.0722 3.309826 31.387748 -2.458615
2012-01-11 06:20:32 51°15.686 2°53.951 8.0786 3.31262 31.412201 -2.458615
2012-01-11 06:20:38 51°15.705 2°53.935 8.0601 3.31262 31.412201 -2.458615
2012-01-11 06:20:43 51°15.718 2°53.921 8.0616 3.314172 31.423599 -2.458615
2012-01-11 06:20:48 51°15.733 2°53.907 8.0624 3.316138 31.440984 -2.458615
2012-01-11 06:20:52 51°15.744 2°53.895 8.0554 3.320588 31.486114 -2.458615
2012-01-11 06:20:58 51°15.762 2°53.879 8.0571 3.320899 31.488556 -2.458615
2012-01-11 06:21:03 51°15.777 2°53.865 8.0574 3.323486 31.515752 -2.458615
2012-01-11 06:21:08 51°15.792 2°53.851 8.0617 3.323486 31.515752 -2.458615
2012-01-11 06:21:13 51°15.807 2°53.837 8.0563 3.325142 31.534804 -2.458615
2012-01-11 06:21:18 51°15.822 2°53.823 8.0564 3.326695 31.552771 -2.458615
2012-01-11 06:21:23 51°15.836 2°53.808 8.053 3.326591 31.552506 -2.458615
2012-01-11 06:21:28 51°15.851 2°53.794 8.0451 3.327523 31.563947 -2.458615
2012-01-11 06:21:32 51°15.862 2°53.782 8.0626 3.327212 31.563152 -2.458615
2012-01-11 06:21:38 51°15.879 2°53.765 8.0563 3.327212 31.563152 -2.458615
2012-01-11 06:21:43 51°15.894 2°53.75 8.0527 3.329799 31.591187 -2.458615
2012-01-11 06:21:48 51°15.909 2°53.736 8.0529 3.327109 31.56371 -2.458615
2012-01-11 06:21:52 51°15.92 2°53.724 8.0521 3.324418 31.535413 -2.458615
2012-01-11 06:21:58 51°15.938 2°53.707 8.05 3.322451 31.517203 -2.458615
2012-01-11 06:22:03 51°15.953 2°53.692 8.0492 3.31914 31.484845 -2.458615
2012-01-11 06:22:08 51°15.967 2°53.677 8.0533 3.31914 31.484845 -2.458615
2012-01-11 06:22:12 51°15.978 2°53.665 8.0497 3.319554 31.488376 -2.458615
2012-01-11 06:22:18 51°15.996 2°53.647 8.0537 3.319864 31.49164 -2.458615
2012-01-11 06:22:23 51°16.009 2°53.631 8.0479 3.318001 31.473696 -2.458615
2012-01-11 06:22:28 51°16.023 2°53.616 8.0471 3.318829 31.482401 -2.458615
2012-01-11 06:22:33 51°16.037 2°53.6 8.0522 3.319347 31.489486 -2.458615
2012-01-11 06:22:38 51°16.052 2°53.585 8.0485 3.319347 31.489486 -2.458615
2012-01-11 06:22:43 51°16.066 2°53.569 8.0494 3.318208 31.476694 -2.458615
2012-01-11 06:22:48 51°16.08 2°53.554 8.05 3.316553 31.460925 -2.458615
2012-01-11 06:22:52 51°16.091 2°53.541 8.053 3.315828 31.454949 -2.458615
2012-01-11 06:22:58 51°16.109 2°53.523 8.0515 3.317794 31.476448 -2.458615
2012-01-11 06:23:03 51°16.123 2°53.509 8.0436 3.317277 31.471006 -2.458615
2012-01-11 06:23:08 51°16.138 2°53.495 8.0426 3.317277 31.471006 -2.458615
2012-01-11 06:23:12 51°16.15 2°53.484 8.0463 3.31945 31.494683 -2.458615
2012-01-11 06:23:18 51°16.168 2°53.469 8.0453 3.318312 31.483533 -2.458615
2012-01-11 06:23:23 51°16.184 2°53.456 8.0511 3.318829 31.487331 -2.458615
2012-01-11 06:23:28 51°16.199 2°53.444 8.0531 3.318001 31.477803 -2.458615
2012-01-11 06:23:32 51°16.211 2°53.434 8.0489 3.316346 31.462033 -2.458615
2012-01-11 06:23:38 51°16.23 2°53.419 8.0445 3.316346 31.462033 -2.458615
2012-01-11 06:23:43 51°16.245 2°53.407 8.0536 3.320589 31.507479 -2.458615
2012-01-11 06:23:48 51°16.26 2°53.394 8.0473 3.321624 31.519187 -2.458615
2012-01-11 06:23:52 51°16.272 2°53.384 8.0443 3.32152 31.519744 -2.458615
2012-01-11 06:23:57 51°16.287 2°53.372 8.0404 3.322762 31.532808 -2.458615
2012-01-11 06:24:03 51°16.305 2°53.356 8.0402 3.323073 31.535251 -2.458615
2012-01-11 06:24:08 51°16.32 2°53.343 8.0463 3.323073 31.535251 -2.458615
2012-01-11 06:24:12 51°16.332 2°53.332 8.0428 3.322659 31.531719 -2.458615
2012-01-11 06:24:17 51°16.347 2°53.318 8.0432 3.322969 31.534986 -2.458615
2012-01-11 06:24:22 51°16.362 2°53.305 8.0435 3.323694 31.541784 -2.458615
2012-01-11 06:24:28 51°16.38 2°53.289 8.0446 3.326177 31.571211 -2.458615
2012-01-11 06:24:32 51°16.392 2°53.279 8.0443 3.32566 31.568239 -2.458615
2012-01-11 06:24:37 51°16.407 2°53.265 8.0358 3.32566 31.568239 -2.458615
2012-01-11 06:24:42 51°16.422 2°53.252 8.0378 3.326177 31.574508 -2.458615
2012-01-11 06:24:48 51°16.44 2°53.237 8.0334 3.326384 31.575862 -2.458615
2012-01-11 06:24:52 51°16.452 2°53.227 8.0403 3.326798 31.581043 -2.458615
2012-01-11 06:24:57 51°16.467 2°53.213 8.0376 3.32773 31.590846 -2.458615
2012-01-11 06:25:02 51°16.482 2°53.2 8.0393 3.328454 31.59847 -2.458615
2012-01-11 06:25:08 51°16.499 2°53.184 8.0436 3.328454 31.59847 -2.458615
2012-01-11 06:25:12 51°16.511 2°53.172 8.0407 3.329075 31.605006 -2.458615
2012-01-11 06:25:16 51°16.523 2°53.161 8.0445 3.331663 31.635542 -2.458615
2012-01-11 06:25:22 51°16.54 2°53.144 8.0414 3.330731 31.627389 -2.458615
2012-01-11 06:25:28 51°16.558 2°53.126 8.0441 3.331145 31.631747 -2.458615
2012-01-11 06:25:32 51°16.569 2°53.114 8.039 3.332284 31.644558 -2.458615
2012-01-11 06:25:37 51°16.584 2°53.099 8.0377 3.332284 31.644558 -2.458615
2012-01-11 06:25:42 51°16.598 2°53.084 8.0374 3.334974 31.672891 -2.458615
2012-01-11 06:25:48 51°16.615 2°53.065 8.0375 3.335699 31.680519 -2.458615
2012-01-11 06:25:52 51°16.627 2°53.053 8.0397 3.334147 31.663346 -2.458615
2012-01-11 06:25:57 51°16.641 2°53.038 8.0391 3.334353 31.664698 -2.458615
2012-01-11 06:26:02 51°16.656 2°53.024 8.0389 3.338286 31.706938 -2.458615
2012-01-11 06:26:08 51°16.673 2°53.006 8.0411 3.338286 31.706938 -2.458615
2012-01-11 06:26:12 51°16.685 2°52.995 8.0415 3.334974 31.671236 -2.458615
2012-01-11 06:26:16 51°16.697 2°52.984 8.04 3.338286 31.707766 -2.458615
2012-01-11 06:26:22 51°16.714 2°52.967 8.0392 3.33663 31.691983 -2.458615
2012-01-11 06:26:28 51°16.732 2°52.951 8.0444 3.337251 31.697694 -2.458615
2012-01-11 06:26:32 51°16.744 2°52.94 8.042 3.337872 31.704234 -2.458615
2012-01-11 06:26:37 51°16.759 2°52.926 8.0449 3.337872 31.704234 -2.458615
2012-01-11 06:26:42 51°16.774 2°52.913 8.0389 3.342012 31.747836 -2.458615
2012-01-11 06:26:48 51°16.792 2°52.898 8.0432 3.337976 31.704496 -2.458615
2012-01-11 06:26:52 51°16.803 2°52.887 8.0468 3.339425 31.720584 -2.458615
2012-01-11 06:26:57 51°16.818 2°52.874 8.0404 3.339528 31.721674 -2.458615
2012-01-11 06:27:03 51°16.836 2°52.859 8.0477 3.341909 31.745917 -2.458615
2012-01-11 06:27:08 51°16.851 2°52.846 8.0455 3.341909 31.745917 -2.458615
2012-01-11 06:27:12 51°16.863 2°52.835 8.0417 3.340977 31.735277 -2.458615
2012-01-11 06:27:16 51°16.875 2°52.825 8.0418 3.341909 31.745088 -2.458615
2012-01-11 06:27:22 51°16.892 2°52.809 8.0448 3.345428 31.782984 -2.458615
2012-01-11 06:27:28 51°16.91 2°52.793 8.0413 3.345014 31.777793 -2.458615
2012-01-11 06:27:32 51°16.921 2°52.782 8.0438 3.341805 31.743998 -2.458615
2012-01-11 06:27:38 51°16.939 2°52.766 8.0447 3.341805 31.743998 -2.458615
2012-01-11 06:27:42 51°16.951 2°52.755 8.0538 3.342116 31.746439 -2.458615
2012-01-11 06:27:48 51°16.968 2°52.738 8.0461 3.342737 31.75298 -2.458615
2012-01-11 06:27:52 51°16.98 2°52.727 8.0468 3.343047 31.757079 -2.458615
2012-01-11 06:27:58 51°16.998 2°52.71 8.0487 3.345428 31.782154 -2.458615
2012-01-11 06:28:03 51°17.013 2°52.697 8.0498 3.343151 31.758999 -2.458615
2012-01-11 06:28:08 51°17.028 2°52.683 8.0495 3.343151 31.758999 -2.458615
2012-01-11 06:28:12 51°17.039 2°52.672 8.0494 3.343979 31.767721 -2.458615
2012-01-11 06:28:18 51°17.057 2°52.656 8.056 3.343875 31.764142 -2.458615
2012-01-11 06:28:23 51°17.072 2°52.642 8.0493 3.343875 31.763312 -2.458615
2012-01-11 06:28:28 51°17.087 2°52.629 8.0496 3.344289 31.768502 -2.458615
2012-01-11 06:28:32 51°17.099 2°52.618 8.0518 3.344703 31.771204 -2.458615
2012-01-11 06:28:37 51°17.113 2°52.604 8.0502 3.344703 31.771204 -2.458615
2012-01-11 06:28:43 51°17.131 2°52.59 8.051 3.34698 31.794358 -2.458615
2012-01-11 06:28:48 51°17.147 2°52.578 8.0567 3.344703 31.769545 -2.458615
2012-01-11 06:28:52 51°17.159 2°52.569 8.053 3.344807 31.768976 -2.458615
2012-01-11 06:28:57 51°17.174 2°52.557 8.0515 3.343668 31.757815 -2.458615
2012-01-11 06:29:02 51°17.19 2°52.546 8.0596 3.346773 31.791347 -2.458615
2012-01-11 06:29:08 51°17.208 2°52.533 8.0593 3.350706 31.832778 -2.458615
2012-01-11 06:29:12 51°17.221 2°52.525 8.0639 3.350706 31.832778 -2.458615
2012-01-11 06:29:17 51°17.237 2°52.515 8.061 3.343979 31.761085 -2.458615
2012-01-11 06:29:23 51°17.256 2°52.504 8.0669 3.344186 31.761607 -2.458615
2012-01-11 06:29:28 51°17.272 2°52.495 8.0632 3.34729 31.794308 -2.458615
2012-01-11 06:29:32 51°17.285 2°52.488 8.0652 3.344393 31.763787 -2.458615
2012-01-11 06:29:36 51°17.298 2°52.482 8.0685 3.344393 31.763787 -2.458615
2012-01-11 06:29:42 51°17.317 2°52.473 8.0703 3.344289 31.761038 -2.458615
2012-01-11 06:29:48 51°17.337 2°52.465 8.0688 3.345324 31.770279 -2.458615
2012-01-11 06:29:52 51°17.351 2°52.461 8.0725 3.345324 31.76945 -2.458615
2012-01-11 06:29:58 51°17.37 2°52.454 8.0732 3.348946 31.805938 -2.458615
2012-01-11 06:30:02 51°17.383 2°52.449 8.0741 3.346048 31.773761 -2.458615
2012-01-11 06:30:08 51°17.403 2°52.445 8.0802 3.346048 31.773761 -2.458615
2012-01-11 06:30:12 51°17.417 2°52.441 8.0804 3.347394 31.78544 -2.458615
2012-01-11 06:30:18 51°17.437 2°52.438 8.0807 3.352465 31.838015 -2.458615
2012-01-11 06:30:23 51°17.454 2°52.436 8.0862 3.351534 31.827374 -2.458615
2012-01-11 06:30:28 51°17.471 2°52.434 8.0868 3.349153 31.800648 -2.458615
2012-01-11 06:30:32 51°17.484 2°52.432 8.0905 3.350809 31.817254 -2.458615
2012-01-11 06:30:37 51°17.501 2°52.431 8.094 3.350809 31.817254 -2.458615
2012-01-11 06:30:43 51°17.521 2°52.429 8.0959 3.351327 31.820212 -2.458615
2012-01-11 06:30:48 51°17.537 2°52.428 8.098 3.351844 31.82317 -2.458615
2012-01-11 06:30:52 51°17.551 2°52.428 8.1016 3.3535 31.839775 -2.458615
2012-01-11 06:30:57 51°17.567 2°52.428 8.0996 3.354639 31.84927 -2.458615
2012-01-11 06:31:02 51°17.584 2°52.429 8.1045 3.356709 31.869403 -2.458615
2012-01-11 06:31:08 51°17.604 2°52.43 8.1086 3.356709 31.869403 -2.458615
2012-01-11 06:31:12 51°17.618 2°52.431 8.1076 3.35764 31.876716 -2.458615
2012-01-11 06:31:17 51°17.634 2°52.433 8.1118 3.35557 31.851599 -2.458615
2012-01-11 06:31:22 51°17.651 2°52.434 8.118 3.359606 31.891599 -2.458615
2012-01-11 06:31:28 51°17.671 2°52.436 8.1188 3.358054 31.872762 -2.458615
2012-01-11 06:31:32 51°17.684 2°52.436 8.1224 3.359813 31.88962 -2.458615
2012-01-11 06:31:37 51°17.701 2°52.438 8.127 3.359813 31.88962 -2.458615
2012-01-11 06:31:43 51°17.721 2°52.439 8.1301 3.36623 31.953847 -2.458615
2012-01-11 06:31:48 51°17.738 2°52.44 8.1317 3.364264 31.931478 -2.458615
2012-01-11 06:31:52 51°17.751 2°52.441 8.1373 3.363229 31.918086 -2.458615
2012-01-11 06:31:57 51°17.767 2°52.443 8.1415 3.361883 31.900598 -2.458615
2012-01-11 06:32:03 51°17.787 2°52.447 8.1443 3.366023 31.941674 -2.458615
2012-01-11 06:32:08 51°17.803 2°52.452 8.1448 3.366023 31.941674 -2.458615
2012-01-11 06:32:12 51°17.817 2°52.455 8.1454 3.367265 31.951416 -2.458615
2012-01-11 06:32:16 51°17.829 2°52.46 8.1495 3.36799 31.95571 -2.458615
2012-01-11 06:32:22 51°17.849 2°52.466 8.1543 3.371509 31.989413 -2.458615
2012-01-11 06:32:28 51°17.868 2°52.474 8.1587 3.368818 31.956929 -2.458615
2012-01-11 06:32:32 51°17.881 2°52.478 8.1582 3.370784 31.973457 -2.458615
2012-01-11 06:32:36 51°17.894 2°52.483 8.1637 3.373061 31.994082 -2.458615
2012-01-11 06:32:42 51°17.913 2°52.49 8.1688 3.373061 31.994082 -2.458615
2012-01-11 06:32:48 51°17.932 2°52.497 8.1714 3.375442 32.016629 -2.458615
2012-01-11 06:32:52 51°17.945 2°52.503 8.1754 3.3742 32.001894 -2.458615
2012-01-11 06:32:57 51°17.96 2°52.511 8.1794 3.377926 32.036927 -2.458615
2012-01-11 06:33:03 51°17.979 2°52.52 8.1788 3.381445 32.070614 -2.458615
2012-01-11 06:33:08 51°17.994 2°52.53 8.1834 3.381445 32.070614 -2.458615
2012-01-11 06:33:12 51°18.006 2°52.537 8.1853 3.389932 32.156582 -2.458615
2012-01-11 06:33:17 51°18.021 2°52.548 8.1866 3.378133 32.029097 -2.458615
2012-01-11 06:33:22 51°18.036 2°52.56 8.1862 3.38041 32.049711 -2.458615
2012-01-11 06:33:28 51°18.053 2°52.575 8.1882 3.383515 32.078198 -2.458615
2012-01-11 06:33:32 51°18.063 2°52.587 8.1909 3.381859 32.056609 -2.458615
2012-01-11 06:33:36 51°18.074 2°52.598 8.1881 3.381859 32.056609 -2.458615
2012-01-11 06:33:42 51°18.09 2°52.616 8.1928 3.382894 32.064157 -2.458615
2012-01-11 06:33:48 51°18.105 2°52.635 8.1916 3.385585 32.089951 -2.458615
2012-01-11 06:33:52 51°18.114 2°52.648 8.1946 3.385171 32.083094 -2.458615
2012-01-11 06:33:58 51°18.128 2°52.669 8.1955 3.387344 32.103444 -2.458615
2012-01-11 06:34:02 51°18.137 2°52.684 8.1908 3.388897 32.117263 -2.458615
2012-01-11 06:34:08 51°18.149 2°52.707 8.1939 3.388897 32.117263 -2.458615
2012-01-11 06:34:12 51°18.157 2°52.724 8.1924 3.395832 32.190192 -2.458615
2012-01-11 06:34:17 51°18.165 2°52.745 8.1981 3.391174 32.139536 -2.458615
2012-01-11 06:34:23 51°18.176 2°52.77 8.1918 3.389621 32.12154 -2.458615
2012-01-11 06:34:28 51°18.183 2°52.792 8.1924 3.38869 32.110911 -2.458615
2012-01-11 06:34:32 51°18.19 2°52.81 8.1919 3.389207 32.114682 -2.458615
2012-01-11 06:34:37 51°18.197 2°52.832 8.1884 3.389207 32.114682 -2.458615
2012-01-11 06:34:43 51°18.206 2°52.859 8.1879 3.389518 32.117946 -2.458615
2012-01-11 06:34:48 51°18.213 2°52.882 8.191 3.38869 32.109241 -2.458615
2012-01-11 06:34:52 51°18.218 2°52.9 8.1844 3.390035 32.123387 -2.458615
2012-01-11 06:34:57 51°18.225 2°52.923 8.182 3.388276 32.104889 -2.458615
2012-01-11 06:35:03 51°18.235 2°52.949 8.1845 3.390139 32.124475 -2.458615
2012-01-11 06:35:08 51°18.241 2°52.972 8.1869 3.390139 32.124475 -2.458615
2012-01-11 06:35:12 51°18.248 2°52.989 8.1857 3.394693 32.174033 -2.458615
2012-01-11 06:35:17 51°18.255 2°53.012 8.175 3.387758 32.101953 -2.458615
2012-01-11 06:35:23 51°18.264 2°53.038 8.175 3.391277 32.140624 -2.458615
2012-01-11 06:35:28 51°18.272 2°53.061 8.1695 3.359812 31.809177 -2.458615
2012-01-11 06:35:32 51°18.278 2°53.078 8.1647 3.374717 31.968215 -2.458615
2012-01-11 06:35:37 51°18.286 2°53.1 8.1624 3.374717 31.968215 -2.458615
2012-01-11 06:35:42 51°18.294 2°53.122 8.1607 3.373475 31.956826 -2.458615
2012-01-11 06:35:48 51°18.303 2°53.149 8.1563 3.372854 31.951132 -2.458615
2012-01-11 06:35:52 51°18.31 2°53.166 8.1562 3.373578 31.960407 -2.458615
2012-01-11 06:35:56 51°18.317 2°53.183 8.1563 3.372233 31.950423 -2.458615
2012-01-11 06:36:02 51°18.327 2°53.209 8.1544 3.370991 31.940694 -2.458615
2012-01-11 06:36:08 51°18.336 2°53.235 8.1556 3.371508 31.950289 -2.458615
2012-01-11 06:36:12 51°18.343 2°53.252 8.1533 3.371508 31.950289 -2.458615
2012-01-11 06:36:17 51°18.35 2°53.274 8.1449 3.371922 31.957136 -2.458615
2012-01-11 06:36:22 51°18.359 2°53.295 8.1471 3.368403 31.923468 -2.458615
2012-01-11 06:36:28 51°18.368 2°53.321 8.1411 3.367679 31.918344 -2.458615
2012-01-11 06:36:32 51°18.375 2°53.339 8.1362 3.366437 31.906118 -2.458615
2012-01-11 06:36:37 51°18.383 2°53.361 8.1384 3.366437 31.906118 -2.458615
2012-01-11 06:36:42 51°18.39 2°53.382 8.1381 3.365816 31.90042 -2.458615
2012-01-11 06:36:48 51°18.4 2°53.408 8.1332 3.364677 31.890113 -2.458615
2012-01-11 06:36:52 51°18.406 2°53.425 8.1283 3.365609 31.902396 -2.458615
2012-01-11 06:36:57 51°18.414 2°53.447 8.127 3.363021 31.878514 -2.458615
2012-01-11 06:37:02 51°18.422 2°53.469 8.1273 3.364056 31.891886 -2.458615
2012-01-11 06:37:08 51°18.432 2°53.495 8.1271 3.364056 31.891886 -2.458615
2012-01-11 06:37:12 51°18.439 2°53.512 8.1229 3.362193 31.874788 -2.458615
2012-01-11 06:37:18 51°18.449 2°53.538 8.1273 3.361262 31.868313 -2.458615
2012-01-11 06:37:22 51°18.456 2°53.554 8.1223 3.360227 31.859919 -2.458615
2012-01-11 06:37:28 51°18.466 2°53.58 8.1188 3.361779 31.878736 -2.458615
2012-01-11 06:37:32 51°18.473 2°53.597 8.1209 3.360331 31.865987 -2.458615
2012-01-11 06:37:37 51°18.481 2°53.618 8.1175 3.360331 31.865987 -2.458615
2012-01-11 06:37:43 51°18.491 2°53.644 8.113 3.358985 31.855156 -2.458615
2012-01-11 06:37:48 51°18.501 2°53.664 8.1126 3.359606 31.862518 -2.458615
2012-01-11 06:37:52 51°18.507 2°53.681 8.1146 3.358157 31.848107 -2.458615
2012-01-11 06:37:56 51°18.514 2°53.698 8.1093 3.358778 31.856299 -2.458615
2012-01-11 06:38:02 51°18.525 2°53.724 8.1066 3.35764 31.845983 -2.458615
2012-01-11 06:38:08 51°18.536 2°53.748 8.1097 3.35764 31.845983 -2.458615
2012-01-11 06:38:12 51°18.542 2°53.765 8.1049 3.355673 31.826958 -2.458615
2012-01-11 06:38:18 51°18.553 2°53.789 8.1004 3.356605 31.839245 -2.458615
2012-01-11 06:38:22 51°18.561 2°53.805 8.0992 3.354328 31.817781 -2.458615
2012-01-11 06:38:28 51°18.573 2°53.828 8.0988 3.353707 31.811248 -2.458615
2012-01-11 06:38:32 51°18.58 2°53.845 8.0906 3.355259 31.829238 -2.458615
2012-01-11 06:38:37 51°18.591 2°53.864 8.0943 3.355259 31.829238 -2.458615
2012-01-11 06:38:42 51°18.6 2°53.884 8.0923 3.351947 31.796056 -2.458615
2012-01-11 06:38:48 51°18.611 2°53.908 8.0923 3.353707 31.817053 -2.458615
2012-01-11 06:38:52 51°18.619 2°53.924 8.0919 3.352258 31.804296 -2.458615
2012-01-11 06:38:58 51°18.63 2°53.948 8.0892 3.353396 31.819592 -2.458615
2012-01-11 06:39:03 51°18.64 2°53.969 8.0833 3.350602 31.791847 -2.458615
2012-01-11 06:39:08 51°18.649 2°53.989 8.0832 3.350602 31.791847 -2.458615
2012-01-11 06:39:12 51°18.656 2°54.005 8.0829 3.35381 31.828928 -2.458615
2012-01-11 06:39:17 51°18.665 2°54.026 8.0757 3.351637 31.807713 -2.458615
2012-01-11 06:39:23 51°18.675 2°54.051 8.0747 3.351533 31.808283 -2.458615
2012-01-11 06:39:28 51°18.683 2°54.072 8.0808 3.348946 31.781881 -2.458615
2012-01-11 06:39:32 51°18.69 2°54.09 8.0719 3.348739 31.781361 -2.458615
2012-01-11 06:39:36 51°18.697 2°54.107 8.0682 3.348739 31.781361 -2.458615
2012-01-11 06:39:42 51°18.707 2°54.132 8.0724 3.351016 31.806984 -2.458615
2012-01-11 06:39:48 51°18.717 2°54.158 8.0726 3.346255 31.758534 -2.458615
2012-01-11 06:39:52 51°18.724 2°54.175 8.0668 3.346462 31.764027 -2.458615
2012-01-11 06:39:57 51°18.732 2°54.196 8.0595 3.344185 31.741719 -2.458615
2012-01-11 06:40:02 51°18.741 2°54.218 8.0584 3.345531 31.758366 -2.458615
2012-01-11 06:40:08 51°18.751 2°54.243 8.0496 3.345531 31.758366 -2.458615
2012-01-11 06:40:12 51°18.757 2°54.261 8.048 3.342633 31.730348 -2.458615
2012-01-11 06:40:16 51°18.765 2°54.277 8.0476 3.342529 31.730914 -2.458615
2012-01-11 06:40:22 51°18.774 2°54.303 8.0399 3.343668 31.744555 -2.458615
2012-01-11 06:40:28 51°18.785 2°54.329 8.0415 3.340563 31.713527 -2.458615
2012-01-11 06:40:32 51°18.792 2°54.345 8.0341 3.341495 31.726644 -2.458615
2012-01-11 06:40:37 51°18.801 2°54.366 8.0316 3.341495 31.726644 -2.458615
2012-01-11 06:40:42 51°18.809 2°54.387 8.0233 3.340356 31.717142 -2.458615
2012-01-11 06:40:48 51°18.82 2°54.411 8.0206 3.340977 31.728649 -2.458615
2012-01-11 06:40:52 51°18.828 2°54.427 8.0187 3.337148 31.693294 -2.458615
2012-01-11 06:40:57 51°18.837 2°54.447 8.0174 3.335388 31.678077 -2.458615
2012-01-11 06:41:03 51°18.849 2°54.471 8.014 3.3387 31.717095 -2.458615
2012-01-11 06:41:08 51°18.859 2°54.49 8.0102 3.3387 31.717095 -2.458615
2012-01-11 06:41:12 51°18.867 2°54.507 8.0127 3.334147 31.672443 -2.458615
2012-01-11 06:41:16 51°18.874 2°54.523 8.0071 3.335182 31.689138 -2.458615
2012-01-11 06:41:22 51°18.885 2°54.547 8.0042 3.332905 31.668463 -2.458615
2012-01-11 06:41:28 51°18.896 2°54.572 7.9895 3.328558 31.628462 -2.458615
2012-01-11 06:41:32 51°18.904 2°54.588 7.9826 3.328351 31.627935 -2.458615
2012-01-11 06:41:38 51°18.915 2°54.613 7.9848 3.32773 31.624699 -2.458615
2012-01-11 06:41:43 51°18.924 2°54.633 7.9806 3.32773 31.624699 -2.458615
2012-01-11 06:41:48 51°18.933 2°54.654 7.9784 3.324936 31.596913 -2.458615
2012-01-11 06:41:52 51°18.941 2°54.671 7.9694 3.324212 31.592584 -2.458615
2012-01-11 06:41:57 51°18.949 2°54.691 7.9694 3.322763 31.580622 -2.458615
2012-01-11 06:42:03 51°18.96 2°54.716 7.9633 3.320279 31.560231 -2.458615
2012-01-11 06:42:08 51°18.969 2°54.737 7.9508 3.320279 31.560231 -2.458615
2012-01-11 06:42:12 51°18.976 2°54.754 7.9493 3.31883 31.552391 -2.458615
2012-01-11 06:42:17 51°18.985 2°54.774 7.9461 3.318106 31.548882 -2.458615
2012-01-11 06:42:23 51°18.996 2°54.8 7.9424 3.31676 31.538829 -2.458615
2012-01-11 06:42:28 51°19.004 2°54.82 7.9352 3.31438 31.517039 -2.458615
2012-01-11 06:42:32 51°19.01 2°54.837 7.932 3.31231 31.499345 -2.458615
2012-01-11 06:42:37 51°19.019 2°54.858 7.9338 3.31231 31.499345 -2.458615
2012-01-11 06:42:42 51°19.027 2°54.879 7.9319 3.31169 31.498571 -2.458615
2012-01-11 06:42:48 51°19.037 2°54.904 7.9279 3.308585 31.472433 -2.458615
2012-01-11 06:42:52 51°19.044 2°54.921 7.9177 3.306826 31.459651 -2.458615
2012-01-11 06:42:58 51°19.053 2°54.947 7.9107 3.303618 31.429118 -2.458615
2012-01-11 06:43:02 51°19.061 2°54.964 7.9081 3.301651 31.413323 -2.458615
2012-01-11 06:43:08 51°19.071 2°54.989 7.9099 3.301651 31.413323 -2.458615
2012-01-11 06:43:12 51°19.077 2°55.006 7.906 3.302169 31.422895 -2.458615
2012-01-11 06:43:17 51°19.086 2°55.027 7.9059 3.298443 31.386075 -2.458615
2012-01-11 06:43:22 51°19.095 2°55.047 7.9008 3.298133 31.386913 -2.458615
2012-01-11 06:43:28 51°19.104 2°55.073 7.8919 3.295649 31.366474 -2.458615
2012-01-11 06:43:32 51°19.111 2°55.09 7.8954 3.292234 31.333743 -2.458615
2012-01-11 06:43:38 51°19.121 2°55.116 7.8912 3.292234 31.333743 -2.458615
2012-01-11 06:43:43 51°19.13 2°55.137 7.8922 3.292234 31.339493 -2.458615
2012-01-11 06:43:48 51°19.139 2°55.158 7.8863 3.287888 31.296111 -2.458615
2012-01-11 06:43:52 51°19.146 2°55.173 7.8898 3.28675 31.286566 -2.458615
2012-01-11 06:43:57 51°19.155 2°55.194 7.8809 3.285818 31.280843 -2.458615
2012-01-11 06:44:03 51°19.167 2°55.218 7.8827 3.284473 31.272394 -2.458615
2012-01-11 06:44:08 51°19.175 2°55.238 7.8809 3.284473 31.272394 -2.458615
2012-01-11 06:44:12 51°19.183 2°55.253 7.8795 3.28199 31.247833 -2.458615
2012-01-11 06:44:17 51°19.192 2°55.274 7.8764 3.279506 31.223272 -2.458615
2012-01-11 06:44:22 51°19.202 2°55.293 7.8707 3.280955 31.241833 -2.458615
2012-01-11 06:44:28 51°19.213 2°55.318 7.8653 3.277643 31.209355 -2.458615
2012-01-11 06:44:32 51°19.221 2°55.333 7.8601 3.276609 31.200894 -2.458615
2012-01-11 06:44:37 51°19.23 2°55.354 7.8659 3.276609 31.200894 -2.458615
2012-01-11 06:44:43 51°19.241 2°55.377 7.8669 3.283749 31.279521 -2.458615
2012-01-11 06:44:48 51°19.25 2°55.398 7.8634 3.275056 31.188611 -2.458615
2012-01-11 06:44:52 51°19.257 2°55.415 7.863 3.274746 31.187791 -2.458615
2012-01-11 06:44:57 51°19.266 2°55.435 7.8621 3.276505 31.20963 -2.458615
2012-01-11 06:45:02 51°19.275 2°55.456 7.8585 3.272987 31.175776 -2.458615
2012-01-11 06:45:08 51°19.286 2°55.48 7.8495 3.272987 31.175776 -2.458615
2012-01-11 06:45:12 51°19.293 2°55.496 7.8508 3.271642 31.165671 -2.458615
2012-01-11 06:45:18 51°19.305 2°55.521 7.8537 3.270193 31.150382 -2.458615
2012-01-11 06:45:22 51°19.312 2°55.537 7.8584 3.267709 31.12581 -2.458615
2012-01-11 06:45:28 51°19.323 2°55.562 7.856 3.267088 31.120893 -2.458615
2012-01-11 06:45:32 51°19.33 2°55.578 7.8619 3.262328 31.0723 -2.458615
2012-01-11 06:45:37 51°19.339 2°55.598 7.8545 3.262328 31.0723 -2.458615
2012-01-11 06:45:43 51°19.35 2°55.623 7.8556 3.269365 31.148189 -2.458615
2012-01-11 06:45:48 51°19.358 2°55.643 7.8543 3.266364 31.119786 -2.458615
2012-01-11 06:45:52 51°19.365 2°55.66 7.8512 3.265019 31.107223 -2.458615
2012-01-11 06:45:57 51°19.373 2°55.681 7.8493 3.265743 31.114051 -2.458615
2012-01-11 06:46:03 51°19.383 2°55.706 7.8511 3.264708 31.102313 -2.458615
2012-01-11 06:46:08 51°19.391 2°55.727 7.8551 3.264708 31.102313 -2.458615
2012-01-11 06:46:12 51°19.398 2°55.744 7.8538 3.264708 31.103129 -2.458615
2012-01-11 06:46:17 51°19.407 2°55.765 7.8486 3.265743 31.114868 -2.458615
2012-01-11 06:46:23 51°19.417 2°55.79 7.8462 3.263467 31.091658 -2.458615
2012-01-11 06:46:28 51°19.427 2°55.809 7.8513 3.262639 31.084554 -2.458615
2012-01-11 06:46:32 51°19.434 2°55.825 7.8454 3.263674 31.097109 -2.458615
2012-01-11 06:46:37 51°19.444 2°55.844 7.8456 3.263674 31.097109 -2.458615
2012-01-11 06:46:43 51°19.455 2°55.868 7.8446 3.262432 31.084003 -2.458615
2012-01-11 06:46:48 51°19.465 2°55.887 7.839 3.263156 31.091648 -2.458615
2012-01-11 06:46:52 51°19.473 2°55.904 7.8389 3.260983 31.070346 -2.458615
2012-01-11 06:46:57 51°19.482 2°55.924 7.8438 3.262329 31.085361 -2.458615
2012-01-11 06:47:02 51°19.491 2°55.944 7.8471 3.261604 31.079348 -2.458615
2012-01-11 06:47:08 51°19.503 2°55.968 7.8395 3.260155 31.064873 -2.458615
2012-01-11 06:47:12 51°19.51 2°55.985 7.8436 3.260155 31.064873 -2.458615
2012-01-11 06:47:18 51°19.521 2°56.009 7.8398 3.263156 31.097367 -2.458615
2012-01-11 06:47:22 51°19.528 2°56.025 7.8362 3.258396 31.048754 -2.458615
2012-01-11 06:47:28 51°19.54 2°56.048 7.8339 3.258293 31.048478 -2.458615
2012-01-11 06:47:32 51°19.547 2°56.065 7.8326 3.264191 31.110744 -2.458615
2012-01-11 06:47:38 51°19.56 2°56.087 7.8327 3.264191 31.110744 -2.458615
2012-01-11 06:47:43 51°19.569 2°56.107 7.8285 3.257155 31.036463 -2.458615
2012-01-11 06:47:48 51°19.579 2°56.127 7.8278 3.255913 31.024173 -2.458615
2012-01-11 06:47:52 51°19.587 2°56.142 7.8209 3.25612 31.027988 -2.458615
2012-01-11 06:47:57 51°19.596 2°56.162 7.8196 3.25881 31.058836 -2.458615
2012-01-11 06:48:03 51°19.606 2°56.187 7.8187 3.254464 31.015404 -2.458615
2012-01-11 06:48:08 51°19.614 2°56.208 7.8164 3.254464 31.015404 -2.458615
2012-01-11 06:48:12 51°19.621 2°56.225 7.813 3.253326 31.004204 -2.458615
2012-01-11 06:48:16 51°19.628 2°56.241 7.8094 3.252602 30.997373 -2.458615
2012-01-11 06:48:22 51°19.638 2°56.267 7.8034 3.252498 30.998725 -2.458615
2012-01-11 06:48:28 51°19.647 2°56.292 7.8051 3.25136 30.989154 -2.458615
2012-01-11 06:48:32 51°19.654 2°56.309 7.797 3.250015 30.978211 -2.458615
2012-01-11 06:48:37 51°19.662 2°56.33 7.794 3.250015 30.978211 -2.458615
2012-01-11 06:48:43 51°19.672 2°56.355 7.7934 3.248566 30.964546 -2.458615
2012-01-11 06:48:48 51°19.68 2°56.376 7.7889 3.245979 30.939679 -2.458615
2012-01-11 06:48:52 51°19.687 2°56.392 7.7779 3.248256 30.966969 -2.458615
2012-01-11 06:48:57 51°19.696 2°56.413 7.781 3.243393 30.918876 -2.458615
2012-01-11 06:49:03 51°19.707 2°56.438 7.7813 3.242047 30.907114 -2.458615
2012-01-11 06:49:08 51°19.716 2°56.458 7.7747 3.242047 30.907114 -2.458615
2012-01-11 06:49:12 51°19.723 2°56.475 7.7687 3.240081 30.889608 -2.458615
2012-01-11 06:49:17 51°19.732 2°56.495 7.7692 3.239461 30.886304 -2.458615
2012-01-11 06:49:22 51°19.741 2°56.516 7.7627 3.236977 30.864145 -2.458615
2012-01-11 06:49:28 51°19.751 2°56.541 7.7581 3.234597 30.844699 -2.458615
2012-01-11 06:49:32 51°19.758 2°56.557 7.7594 3.232838 30.828559 -2.458615
2012-01-11 06:49:38 51°19.769 2°56.582 7.7545 3.232838 30.828559 -2.458615
2012-01-11 06:49:42 51°19.776 2°56.598 7.7494 3.229734 30.799835 -2.458615
2012-01-11 06:49:48 51°19.787 2°56.622 7.7481 3.228596 30.791059 -2.458615
2012-01-11 06:49:52 51°19.794 2°56.639 7.7533 3.226941 30.776818 -2.458615
2012-01-11 06:49:58 51°19.805 2°56.663 7.7438 3.230148 30.81394 -2.458615
2012-01-11 06:50:03 51°19.813 2°56.684 7.7386 3.228493 30.80132 -2.458615
2012-01-11 06:50:08 51°19.822 2°56.704 7.7363 3.228493 30.80132 -2.458615
2012-01-11 06:50:12 51°19.829 2°56.72 7.7254 3.22125 30.727246 -2.458615
2012-01-11 06:50:17 51°19.838 2°56.74 7.7154 3.21918 30.709436 -2.458615
2012-01-11 06:50:23 51°19.85 2°56.764 7.7063 3.216904 30.687821 -2.458615
2012-01-11 06:50:28 51°19.86 2°56.783 7.7077 3.216594 30.687776 -2.458615
2012-01-11 06:50:32 51°19.867 2°56.798 7.7017 3.2138 30.661502 -2.458615
2012-01-11 06:50:38 51°19.879 2°56.821 7.6886 3.219698 30.727852 -2.458615
2012-01-11 06:50:43 51°19.889 2°56.84 7.6854 3.219698 30.727852 -2.458615
2012-01-11 06:50:48 51°19.898 2°56.86 7.6766 3.21142 30.645251 -2.458615
2012-01-11 06:50:52 51°19.906 2°56.876 7.6722 3.2108 30.64354 -2.458615
2012-01-11 06:50:57 51°19.914 2°56.896 7.6656 3.205833 30.59914 -2.458615
2012-01-11 06:51:03 51°19.925 2°56.92 7.6588 3.20842 30.633743 -2.458615
2012-01-11 06:51:08 51°19.933 2°56.941 7.6532 3.20842 30.633743 -2.458615
2012-01-11 06:51:12 51°19.94 2°56.957 7.6476 3.199108 30.54098 -2.458615
2012-01-11 06:51:17 51°19.948 2°56.978 7.6439 3.195176 30.506681 -2.458615
2012-01-11 06:51:22 51°19.957 2°56.999 7.6441 3.19021 30.460636 -2.458615
2012-01-11 06:51:28 51°19.967 2°57.024 7.6326 3.188348 30.446582 -2.458615
2012-01-11 06:51:32 51°19.975 2°57.039 7.6205 3.183071 30.397243 -2.458615
2012-01-11 06:51:37 51°19.984 2°57.059 7.6169 3.183071 30.397243 -2.458615
2012-01-11 06:51:42 51°19.993 2°57.078 7.6172 3.182968 30.400164 -2.458615
2012-01-11 06:51:48 51°20.004 2°57.102 7.6156 3.176657 30.339878 -2.458615
2012-01-11 06:51:52 51°20.012 2°57.117 7.6111 3.175312 30.332074 -2.458615
2012-01-11 06:51:58 51°20.023 2°57.141 7.6085 3.170346 30.285988 -2.458615
2012-01-11 06:52:02 51°20.031 2°57.156 7.6007 3.168587 30.274599 -2.458615
2012-01-11 06:52:08 51°20.042 2°57.18 7.6017 3.168587 30.274599 -2.458615
2012-01-11 06:52:12 51°20.05 2°57.195 7.6101 3.164449 30.238848 -2.458615
2012-01-11 06:52:18 51°20.061 2°57.219 7.6037 3.161552 30.213016 -2.458615
2012-01-11 06:52:23 51°20.071 2°57.238 7.6023 3.159793 30.197616 -2.458615
2012-01-11 06:52:28 51°20.08 2°57.258 7.5957 3.156276 30.165215 -2.458615
2012-01-11 06:52:32 51°20.087 2°57.274 7.5919 3.154414 30.149514 -2.458615
2012-01-11 06:52:37 51°20.095 2°57.295 7.5897 3.154414 30.149514 -2.458615
2012-01-11 06:52:43 51°20.106 2°57.318 7.5931 3.15162 30.123966 -2.458615
2012-01-11 06:52:48 51°20.115 2°57.339 7.5805 3.149758 30.10587 -2.458615
2012-01-11 06:52:52 51°20.122 2°57.355 7.5892 3.150896 30.1187 -2.458615
2012-01-11 06:52:57 51°20.13 2°57.375 7.5876 3.149344 30.103088 -2.458615
2012-01-11 06:53:03 51°20.141 2°57.4 7.5843 3.146034 30.070474 -2.458615
2012-01-11 06:53:08 51°20.148 2°57.421 7.5785 3.146034 30.070474 -2.458615
2012-01-11 06:53:12 51°20.156 2°57.437 7.5718 3.146241 30.076641 -2.458615
2012-01-11 06:53:17 51°20.164 2°57.457 7.5679 3.142723 30.042631 -2.458615
2012-01-11 06:53:22 51°20.173 2°57.477 7.5659 3.144275 30.061427 -2.458615
2012-01-11 06:53:28 51°20.183 2°57.502 7.5623 3.14024 30.019558 -2.458615
2012-01-11 06:53:32 51°20.19 2°57.517 7.5671 3.140137 30.020054 -2.458615
2012-01-11 06:53:37 51°20.199 2°57.537 7.5618 3.140137 30.020054 -2.458615
2012-01-11 06:53:42 51°20.207 2°57.558 7.5566 3.138999 30.00961 -2.458615
2012-01-11 06:53:48 51°20.217 2°57.582 7.5511 3.138585 30.009207 -2.458615
2012-01-11 06:53:52 51°20.223 2°57.598 7.5484 3.136206 29.988016 -2.458615
2012-01-11 06:53:58 51°20.233 2°57.622 7.5408 3.135068 29.979952 -2.458615
2012-01-11 06:54:02 51°20.24 2°57.639 7.5362 3.131344 29.942946 -2.458615
2012-01-11 06:54:08 51°20.25 2°57.662 7.5327 3.130619 29.937667 -2.458615
2012-01-11 06:54:12 51°20.257 2°57.678 7.5358 3.130619 29.937667 -2.458615
2012-01-11 06:54:18 51°20.268 2°57.701 7.5322 3.128757 29.921145 -2.458615
2012-01-11 06:54:23 51°20.277 2°57.721 7.5284 3.126688 29.901641 -2.458615
2012-01-11 06:54:28 51°20.286 2°57.74 7.529 3.125137 29.889191 -2.458615
2012-01-11 06:54:32 51°20.294 2°57.755 7.5284 3.123688 29.879416 -2.458615
2012-01-11 06:54:37 51°20.303 2°57.775 7.5208 3.123688 29.879416 -2.458615
2012-01-11 06:54:43 51°20.315 2°57.797 7.5238 3.121413 29.860885 -2.458615
2012-01-11 06:54:48 51°20.324 2°57.816 7.524 3.118723 29.835597 -2.458615
2012-01-11 06:54:52 51°20.332 2°57.831 7.527 3.118102 29.831405 -2.458615
2012-01-11 06:54:58 51°20.344 2°57.855 7.5234 3.117585 29.829097 -2.458615
2012-01-11 06:55:02 51°20.352 2°57.87 7.5143 3.117792 29.832868 -2.458615
2012-01-11 06:55:08 51°20.363 2°57.894 7.515 3.117792 29.832868 -2.458615
2012-01-11 06:55:12 51°20.37 2°57.909 7.5219 3.113964 29.794744 -2.458615
2012-01-11 06:55:18 51°20.381 2°57.934 7.5188 3.111378 29.768965 -2.458615
2012-01-11 06:55:23 51°20.391 2°57.953 7.5202 3.110551 29.761789 -2.458615
2012-01-11 06:55:28 51°20.399 2°57.973 7.5123 3.110861 29.765072 -2.458615
2012-01-11 06:55:32 51°20.407 2°57.989 7.5193 3.107861 29.734915 -2.458615
2012-01-11 06:55:37 51°20.415 2°58.009 7.5123 3.107861 29.734915 -2.458615
2012-01-11 06:55:43 51°20.427 2°58.032 7.5069 3.108896 29.747436 -2.458615
2012-01-11 06:55:48 51°20.436 2°58.052 7.5073 3.10693 29.727432 -2.458615
2012-01-11 06:55:52 51°20.443 2°58.068 7.5069 3.105378 29.711018 -2.458615
2012-01-11 06:55:58 51°20.454 2°58.091 7.499 3.107964 29.738376 -2.458615
2012-01-11 06:56:02 51°20.461 2°58.108 7.5033 3.105689 29.715878 -2.458615
2012-01-11 06:56:08 51°20.472 2°58.131 7.5005 3.105689 29.715878 -2.458615
2012-01-11 06:56:12 51°20.479 2°58.148 7.5014 3.105378 29.713383 -2.458615
2012-01-11 06:56:18 51°20.49 2°58.172 7.5018 3.104654 29.708877 -2.458615
2012-01-11 06:56:23 51°20.499 2°58.192 7.5099 3.104034 29.703887 -2.458615
2012-01-11 06:56:28 51°20.509 2°58.212 7.5011 3.102792 29.693118 -2.458615
2012-01-11 06:56:32 51°20.516 2°58.228 7.5001 3.102585 29.694082 -2.458615
2012-01-11 06:56:37 51°20.525 2°58.248 7.4988 3.102585 29.694082 -2.458615
2012-01-11 06:56:42 51°20.534 2°58.269 7.4979 3.102689 29.696753 -2.458615
2012-01-11 06:56:48 51°20.544 2°58.293 7.4926 3.102689 29.697541 -2.458615
2012-01-11 06:56:52 51°20.551 2°58.31 7.4929 3.101861 29.688784 -2.458615
2012-01-11 06:56:58 51°20.561 2°58.334 7.4937 3.104654 29.718341 -2.458615
2012-01-11 06:57:02 51°20.568 2°58.351 7.4955 3.104551 29.716457 -2.458615
2012-01-11 06:57:08 51°20.578 2°58.375 7.4873 3.104551 29.716457 -2.458615
2012-01-11 06:57:12 51°20.585 2°58.391 7.4874 3.099068 29.659232 -2.458615
2012-01-11 06:57:18 51°20.596 2°58.415 7.4911 3.099482 29.664397 -2.458615
2012-01-11 06:57:23 51°20.606 2°58.434 7.4875 3.098655 29.658791 -2.458615
2012-01-11 06:57:28 51°20.615 2°58.454 7.4854 3.098551 29.659271 -2.458615
2012-01-11 06:57:32 51°20.623 2°58.469 7.4855 3.095655 29.630197 -2.458615
2012-01-11 06:57:38 51°20.634 2°58.493 7.4841 3.095034 29.625203 -2.458615
2012-01-11 06:57:43 51°20.643 2°58.513 7.4812 3.095034 29.625203 -2.458615
2012-01-11 06:57:48 51°20.652 2°58.533 7.4845 3.094413 29.620209 -2.458615
2012-01-11 06:57:52 51°20.659 2°58.548 7.4757 3.094103 29.617712 -2.458615
2012-01-11 06:57:58 51°20.67 2°58.572 7.4783 3.093172 29.608647 -2.458615
2012-01-11 06:58:03 51°20.68 2°58.592 7.4766 3.095965 29.639777 -2.458615
2012-01-11 06:58:08 51°20.689 2°58.611 7.4841 3.095965 29.639777 -2.458615
2012-01-11 06:58:12 51°20.696 2°58.627 7.4799 2.997496 28.600047 -2.458615
2012-01-11 06:58:17 51°20.705 2°58.647 7.4779 3.101344 29.698291 -2.458615
2012-01-11 06:58:23 51°20.715 2°58.671 7.4749 3.096172 29.645116 -2.458615
2012-01-11 06:58:28 51°20.724 2°58.692 7.4775 3.095448 29.639814 -2.458615
2012-01-11 06:58:32 51°20.73 2°58.708 7.4755 3.094517 29.629959 -2.458615
2012-01-11 06:58:37 51°20.739 2°58.728 7.4698 3.094517 29.629959 -2.458615
2012-01-11 06:58:43 51°20.75 2°58.752 7.4658 3.093586 29.620892 -2.458615
2012-01-11 06:58:48 51°20.759 2°58.772 7.4659 3.097103 29.658122 -2.458615
2012-01-11 06:58:52 51°20.766 2°58.788 7.4606 3.093172 29.617299 -2.458615
2012-01-11 06:58:58 51°20.777 2°58.811 7.4619 3.095655 29.645154 -2.458615
2012-01-11 06:59:02 51°20.784 2°58.827 7.4609 3.094 29.62842 -2.458615
2012-01-11 06:59:08 51°20.795 2°58.851 7.4676 3.094 29.62842 -2.458615
2012-01-11 06:59:12 51°20.803 2°58.866 7.4633 3.089862 29.586195 -2.458615
2012-01-11 06:59:18 51°20.814 2°58.889 7.4627 3.088931 29.578699 -2.458615
2012-01-11 06:59:23 51°20.823 2°58.909 7.4634 3.087483 29.564942 -2.458615
2012-01-11 06:59:28 51°20.832 2°58.928 7.465 3.091931 29.614389 -2.458615
2012-01-11 06:59:32 51°20.839 2°58.944 7.4647 3.091931 29.61675 -2.458615
2012-01-11 06:59:37 51°20.849 2°58.964 7.4632 3.091828 29.616442 -2.458615
2012-01-11 06:59:42 51°20.858 2°58.984 7.4626 3.091828 29.616442 -2.458615
2012-01-11 06:59:48 51°20.869 2°59.007 7.4608 3.085414 29.547757 -2.458615
2012-01-11 06:59:52 51°20.876 2°59.022 7.4597 3.084897 29.542282 -2.458615
2012-01-11 06:59:58 51°20.888 2°59.046 7.4652 3.086138 29.556207 -2.458615
2012-01-11 07:00:03 51°20.897 2°59.065 7.4615 3.09069 29.604394 -2.458615
2012-01-11 07:00:08 51°20.906 2°59.085 7.4615 3.09069 29.604394 -2.458615
2012-01-11 07:00:12 51°20.914 2°59.1 7.4615 3.08438 29.537593 -2.458615
2012-01-11 07:00:17 51°20.923 2°59.12 7.4603 3.087586 29.572324 -2.458615
2012-01-11 07:00:22 51°20.933 2°59.139 7.463 3.088311 29.580777 -2.458615
2012-01-11 07:00:28 51°20.944 2°59.162 7.4595 3.083035 29.525713 -2.458615
2012-01-11 07:00:32 51°20.951 2°59.178 7.4656 3.089759 29.59611 -2.458615
2012-01-11 07:00:37 51°20.961 2°59.198 7.4616 3.089759 29.59611 -2.458615
2012-01-11 07:00:42 51°20.969 2°59.218 7.4601 3.082932 29.524618 -2.458615
2012-01-11 07:00:48 51°20.98 2°59.242 7.4594 3.082932 29.524618 -2.458615
2012-01-11 07:00:52 51°20.988 2°59.258 7.4604 3.082207 29.517738 -2.458615
2012-01-11 07:00:58 51°20.999 2°59.282 7.458 3.089242 29.590634 -2.458615
2012-01-11 07:01:02 51°21.006 2°59.298 7.4588 3.084276 29.538068 -2.458615
2012-01-11 07:01:08 51°21.016 2°59.322 7.4616 3.084276 29.538068 -2.458615
2012-01-11 07:01:12 51°21.024 2°59.337 7.4576 3.083035 29.524928 -2.458615
2012-01-11 07:01:18 51°21.034 2°59.362 7.4583 3.087276 29.570611 -2.458615
2012-01-11 07:01:23 51°21.042 2°59.382 7.4583 3.085207 29.549494 -2.458615
2012-01-11 07:01:28 51°21.051 2°59.403 7.4569 3.082311 29.518833 -2.458615
2012-01-11 07:01:32 51°21.058 2°59.419 7.4598 3.08469 29.543233 -2.458615
2012-01-11 07:01:37 51°21.066 2°59.439 7.4593 3.08469 29.543233 -2.458615
2012-01-11 07:01:43 51°21.077 2°59.463 7.4566 3.081794 29.514143 -2.458615
2012-01-11 07:01:48 51°21.085 2°59.484 7.4599 3.080139 29.496625 -2.458615
2012-01-11 07:01:52 51°21.093 2°59.5 7.4591 3.086966 29.569683 -2.458615
2012-01-11 07:01:58 51°21.103 2°59.524 7.4543 3.087173 29.57266 -2.458615
2012-01-11 07:02:03 51°21.112 2°59.544 7.4557 3.08438 29.543875 -2.458615
2012-01-11 07:02:08 51°21.121 2°59.565 7.4561 3.08438 29.543875 -2.458615
2012-01-11 07:02:12 51°21.128 2°59.581 7.4562 3.077966 29.475985 -2.458615
2012-01-11 07:02:17 51°21.136 2°59.601 7.4569 3.083966 29.539494 -2.458615
2012-01-11 07:02:23 51°21.147 2°59.625 7.4531 3.080863 29.505858 -2.458615
2012-01-11 07:02:28 51°21.157 2°59.644 7.4557 3.080449 29.502262 -2.458615
2012-01-11 07:02:32 51°21.164 2°59.66 7.4495 3.088 29.582996 -2.458615
2012-01-11 07:02:37 51°21.174 2°59.679 7.4488 3.088 29.582996 -2.458615
2012-01-11 07:02:42 51°21.183 2°59.698 7.45 3.083656 29.536994 -2.458615
2012-01-11 07:02:48 51°21.194 2°59.722 7.4512 3.080242 29.501641 -2.458615
2012-01-11 07:02:52 51°21.202 2°59.737 7.4518 3.079932 29.49914 -2.458615
2012-01-11 07:02:58 51°21.214 2°59.76 7.4528 3.08107 29.510401 -2.458615
2012-01-11 07:03:02 51°21.222 2°59.775 7.4496 3.08769 29.581282 -2.458615
2012-01-11 07:03:08 51°21.233 2°59.798 7.4522 3.080035 29.501804 -2.458615
2012-01-11 07:03:12 51°21.242 2°59.813 7.4566 3.080035 29.501804 -2.458615
2012-01-11 07:03:18 51°21.254 2°59.836 7.4587 3.080552 29.508064 -2.458615
2012-01-11 07:03:23 51°21.263 2°59.855 7.4561 3.085311 29.559233 -2.458615
2012-01-11 07:03:28 51°21.273 2°59.875 7.4597 3.080552 29.508849 -2.458615
2012-01-11 07:03:32 51°21.28 2°59.891 7.4547 3.086035 29.566114 -2.458615
2012-01-11 07:03:37 51°21.289 2°59.91 7.4554 3.086035 29.566114 -2.458615
2012-01-11 07:03:43 51°21.3 2°59.935 7.4594 3.082311 29.526682 -2.458615
2012-01-11 07:03:48 51°21.309 2°59.955 7.4522 3.079932 29.500709 -2.458615
2012-01-11 07:03:52 51°21.315 2°59.971 7.4573 3.08738 29.577996 -2.458615
2012-01-11 07:03:58 51°21.325 2°59.996 7.4561 3.083966 29.540279 -2.458615
2012-01-11 07:04:02 51°21.332 3°0.012 7.4527 3.083449 29.534018 -2.458615
2012-01-11 07:04:08 51°21.343 3°0.037 7.4544 3.083449 29.534018 -2.458615
2012-01-11 07:04:12 51°21.349 3°0.053 7.4583 3.078897 29.486622 -2.458615
2012-01-11 07:04:17 51°21.359 3°0.073 7.4608 3.080759 29.506332 -2.458615
2012-01-11 07:04:23 51°21.369 3°0.098 7.4538 3.078897 29.487406 -2.458615
2012-01-11 07:04:28 51°21.377 3°0.118 7.456 3.07869 29.485216 -2.458615
2012-01-11 07:04:32 51°21.384 3°0.134 7.4608 3.079208 29.490691 -2.458615
2012-01-11 07:04:37 51°21.393 3°0.155 7.4659 3.079208 29.490691 -2.458615
2012-01-11 07:04:43 51°21.403 3°0.179 7.47 3.083242 29.534969 -2.458615
2012-01-11 07:04:48 51°21.412 3°0.199 7.4615 3.080242 29.502425 -2.458615
2012-01-11 07:04:52 51°21.418 3°0.215 7.4615 3.078587 29.484122 -2.458615
2012-01-11 07:04:58 51°21.429 3°0.24 7.4637 3.092138 29.627604 -2.458615
2012-01-11 07:05:02 51°21.436 3°0.256 7.4653 3.08107 29.510401 -2.458615
2012-01-11 07:05:08 51°21.447 3°0.279 7.4633 3.082828 29.526663 -2.458615
2012-01-11 07:05:12 51°21.454 3°0.296 7.4636 3.082828 29.526663 -2.458615
2012-01-11 07:05:18 51°21.465 3°0.319 7.462 3.079725 29.491461 -2.458615
2012-01-11 07:05:23 51°21.475 3°0.338 7.4584 3.085724 29.554184 -2.458615
2012-01-11 07:05:28 51°21.484 3°0.358 7.4649 3.081276 29.507884 -2.458615
2012-01-11 07:05:32 51°21.491 3°0.373 7.4672 3.085828 29.556065 -2.458615
2012-01-11 07:05:37 51°21.501 3°0.393 7.4646 3.085828 29.556065 -2.458615
2012-01-11 07:05:43 51°21.512 3°0.416 7.4672 3.081483 29.509289 -2.458615
2012-01-11 07:05:48 51°21.521 3°0.436 7.4718 3.081794 29.513359 -2.458615
2012-01-11 07:05:52 51°21.528 3°0.452 7.4767 3.082104 29.517428 -2.458615
2012-01-11 07:05:58 51°21.54 3°0.475 7.4768 3.091207 29.613806 -2.458615
2012-01-11 07:06:02 51°21.546 3°0.492 7.4726 3.082828 29.525093 -2.458615
2012-01-11 07:06:08 51°21.556 3°0.517 7.4744 3.082828 29.525093 -2.458615
2012-01-11 07:06:12 51°21.563 3°0.533 7.468 3.083966 29.535568 -2.458615
2012-01-11 07:06:17 51°21.571 3°0.554 7.4697 3.084793 29.543543 -2.458615
2012-01-11 07:06:22 51°21.579 3°0.575 7.4712 3.087793 29.573728 -2.458615
2012-01-11 07:06:28 51°21.588 3°0.601 7.472 3.090379 29.597961 -2.458615
2012-01-11 07:06:32 51°21.594 3°0.618 7.4734 3.090483 29.597483 -2.458615
2012-01-11 07:06:38 51°21.603 3°0.643 7.4708 3.084483 29.532408 -2.458615
2012-01-11 07:06:43 51°21.611 3°0.665 7.4717 3.084483 29.532408 -2.458615
2012-01-11 07:06:48 51°21.618 3°0.686 7.4725 3.085414 29.543045 -2.458615
2012-01-11 07:06:52 51°21.624 3°0.703 7.4691 3.089448 29.588105 -2.458615
2012-01-11 07:06:56 51°21.63 3°0.72 7.4661 3.085104 29.542116 -2.458615
2012-01-11 07:07:02 51°21.639 3°0.745 7.4682 3.089448 29.587319 -2.458615
2012-01-11 07:07:08 51°21.648 3°0.77 7.4684 3.089448 29.587319 -2.458615
2012-01-11 07:07:12 51°21.654 3°0.787 7.4691 3.084793 29.537262 -2.458615
2012-01-11 07:07:18 51°21.663 3°0.812 7.4688 3.090276 29.595293 -2.458615
2012-01-11 07:07:22 51°21.669 3°0.829 7.4679 3.089655 29.588723 -2.458615
2012-01-11 07:07:28 51°21.679 3°0.854 7.4675 3.086035 29.551185 -2.458615
2012-01-11 07:07:32 51°21.685 3°0.87 7.4664 3.085931 29.551661 -2.458615
2012-01-11 07:07:38 51°21.695 3°0.895 7.4688 3.085931 29.551661 -2.458615
2012-01-11 07:07:43 51°21.703 3°0.915 7.4648 3.086552 29.559016 -2.458615
2012-01-11 07:07:48 51°21.711 3°0.936 7.4636 3.088724 29.582012 -2.458615
2012-01-11 07:07:52 51°21.718 3°0.952 7.4628 3.084897 29.541497 -2.458615
2012-01-11 07:07:57 51°21.726 3°0.971 7.4683 3.092655 29.624418 -2.458615
2012-01-11 07:08:03 51°21.736 3°0.996 7.4643 3.087173 29.565586 -2.458615
2012-01-11 07:08:08 51°21.745 3°1.015 7.4574 3.087173 29.565586 -2.458615
2012-01-11 07:08:12 51°21.752 3°1.031 7.4598 3.083345 29.525859 -2.458615
2012-01-11 07:08:18 51°21.763 3°1.054 7.4622 3.08769 29.572633 -2.458615
2012-01-11 07:08:22 51°21.769 3°1.071 7.4654 3.083242 29.525549 -2.458615
2012-01-11 07:08:28 51°21.78 3°1.094 7.468 3.091207 29.612232 -2.458615
2012-01-11 07:08:32 51°21.787 3°1.11 7.4667 3.085414 29.550899 -2.458615
2012-01-11 07:08:38 51°21.797 3°1.133 7.4698 3.084587 29.542923 -2.458615
2012-01-11 07:08:43 51°21.806 3°1.153 7.4683 3.084587 29.542923 -2.458615
2012-01-11 07:08:48 51°21.814 3°1.172 7.4717 3.079311 29.48865 -2.458615
2012-01-11 07:08:52 51°21.821 3°1.188 7.4674 3.087069 29.570779 -2.458615
2012-01-11 07:08:57 51°21.83 3°1.208 7.4698 3.083242 29.528688 -2.458615
2012-01-11 07:09:03 51°21.84 3°1.231 7.4698 3.081794 29.512574 -2.458615
2012-01-11 07:09:08 51°21.848 3°1.251 7.4702 3.081794 29.512574 -2.458615
2012-01-11 07:09:12 51°21.855 3°1.267 7.4699 3.082725 29.520859 -2.458615
2012-01-11 07:09:18 51°21.865 3°1.291 7.4688 3.084069 29.534308 -2.458615
2012-01-11 07:09:22 51°21.871 3°1.307 7.4653 3.081897 29.510531 -2.458615
2012-01-11 07:09:28 51°21.881 3°1.332 7.4659 3.081897 29.510531 -2.458615
2012-01-11 07:09:32 51°21.887 3°1.348 7.4601 3.087276 29.566681 -2.458615
2012-01-11 07:09:37 51°21.894 3°1.369 7.4612 3.087276 29.566681 -2.458615
2012-01-11 07:09:42 51°21.902 3°1.39 7.4602 3.082 29.510057 -2.458615
2012-01-11 07:09:48 51°21.911 3°1.415 7.4633 3.085311 29.544306 -2.458615
2012-01-11 07:09:52 51°21.917 3°1.432 7.4566 3.089759 29.592964 -2.458615
2012-01-11 07:09:58 51°21.926 3°1.457 7.455 3.086138 29.555422 -2.458615
2012-01-11 07:10:03 51°21.934 3°1.478 7.4545 3.086655 29.560897 -2.458615
2012-01-11 07:10:08 51°21.941 3°1.499 7.4577 3.086655 29.560897 -2.458615
2012-01-11 07:10:12 51°21.947 3°1.515 7.4511 3.083656 29.531498 -2.458615
2012-01-11 07:10:17 51°21.955 3°1.536 7.4553 3.081173 29.506005 -2.458615
2012-01-11 07:10:23 51°21.964 3°1.561 7.4525 3.081483 29.510858 -2.458615
2012-01-11 07:10:28 51°21.972 3°1.581 7.4526 3.078587 29.48177 -2.458615
2012-01-11 07:10:32 51°21.979 3°1.597 7.4516 3.07807 29.47708 -2.458615
2012-01-11 07:10:38 51°21.989 3°1.621 7.4519 3.077035 29.467698 -2.458615
2012-01-11 07:10:42 51°21.996 3°1.637 7.4552 3.077035 29.467698 -2.458615
2012-01-11 07:10:48 51°22.006 3°1.66 7.4507 3.082932 29.531683 -2.458615
2012-01-11 07:10:52 51°22.013 3°1.676 7.4531 3.081173 29.513066 -2.458615
2012-01-11 07:10:57 51°22.021 3°1.696 7.4543 3.073622 29.434702 -2.458615
2012-01-11 07:11:03 51°22.032 3°1.72 7.4513 3.077139 29.473495 -2.458615
2012-01-11 07:11:08 51°22.04 3°1.74 7.4489 3.077139 29.473495 -2.458615
2012-01-11 07:11:12 51°22.047 3°1.756 7.4456 3.088828 29.597267 -2.458615
2012-01-11 07:11:18 51°22.057 3°1.779 7.4516 3.073208 29.431888 -2.458615
2012-01-11 07:11:23 51°22.066 3°1.799 7.4478 3.076415 29.46583 -2.458615
2012-01-11 07:11:28 51°22.075 3°1.818 7.4489 3.075277 29.453002 -2.458615
2012-01-11 07:11:32 51°22.082 3°1.834 7.4491 3.073001 29.428134 -2.458615
2012-01-11 07:11:37 51°22.091 3°1.853 7.4472 3.073001 29.428134 -2.458615
2012-01-11 07:11:42 51°22.1 3°1.872 7.4484 3.07145 29.412495 -2.458615
2012-01-11 07:11:48 51°22.111 3°1.895 7.4517 3.079622 29.501346 -2.458615
2012-01-11 07:11:52 51°22.117 3°1.911 7.4474 3.074863 29.452539 -2.458615
2012-01-11 07:11:58 51°22.128 3°1.934 7.452 3.074656 29.448782 -2.458615
2012-01-11 07:12:02 51°22.135 3°1.95 7.4481 3.076725 29.471466 -2.458615
2012-01-11 07:12:08 51°22.146 3°1.974 7.452 3.07207 29.422193 -2.458615
2012-01-11 07:12:12 51°22.152 3°1.99 7.4527 3.07207 29.422193 -2.458615
2012-01-11 07:12:17 51°22.161 3°2.009 7.4534 3.074346 29.446281 -2.458615
2012-01-11 07:12:22 51°22.169 3°2.03 7.4457 3.077139 29.475846 -2.458615
2012-01-11 07:12:28 51°22.179 3°2.054 7.4489 3.072277 29.4236 -2.458615
2012-01-11 07:12:32 51°22.185 3°2.071 7.4514 3.077656 29.481322 -2.458615
2012-01-11 07:12:38 51°22.193 3°2.096 7.4449 3.077656 29.481322 -2.458615
2012-01-11 07:12:43 51°22.201 3°2.117 7.4477 3.077242 29.476158 -2.458615
2012-01-11 07:12:48 51°22.208 3°2.138 7.4479 3.074553 29.446121 -2.458615
2012-01-11 07:12:52 51°22.214 3°2.154 7.45 3.07807 29.48335 -2.458615
2012-01-11 07:12:57 51°22.221 3°2.175 7.45 3.076622 29.46802 -2.458615
2012-01-11 07:13:03 51°22.231 3°2.199 7.449 3.072588 29.426102 -2.458615
2012-01-11 07:13:08 51°22.239 3°2.22 7.4493 3.072588 29.426102 -2.458615
2012-01-11 07:13:12 51°22.246 3°2.235 7.4526 3.086656 29.575833 -2.458615
2012-01-11 07:13:18 51°22.256 3°2.26 7.4462 3.077139 29.475846 -2.458615
2012-01-11 07:13:23 51°22.264 3°2.28 7.4495 3.073312 29.436114 -2.458615
2012-01-11 07:13:28 51°22.272 3°2.301 7.4491 3.07145 29.416406 -2.458615
2012-01-11 07:13:32 51°22.278 3°2.317 7.4466 3.081794 29.525917 -2.458615
2012-01-11 07:13:37 51°22.286 3°2.337 7.447 3.081794 29.525917 -2.458615
2012-01-11 07:13:43 51°22.296 3°2.361 7.4472 3.079415 29.500725 -2.458615
2012-01-11 07:13:48 51°22.305 3°2.381 7.4522 3.070105 29.402174 -2.458615
2012-01-11 07:13:52 51°22.312 3°2.397 7.4508 3.072381 29.425477 -2.458615
2012-01-11 07:13:57 51°22.32 3°2.417 7.4532 3.073105 29.433924 -2.458615
2012-01-11 07:14:02 51°22.329 3°2.437 7.4535 3.076518 29.47006 -2.458615
2012-01-11 07:14:08 51°22.338 3°2.462 7.4488 3.076518 29.47006 -2.458615
2012-01-11 07:14:12 51°22.344 3°2.479 7.451 3.084276 29.552994 -2.458615
2012-01-11 07:14:18 51°22.353 3°2.505 7.4489 3.072898 29.432517 -2.458615
2012-01-11 07:14:22 51°22.359 3°2.521 7.4511 3.079828 29.505106 -2.458615
2012-01-11 07:14:28 51°22.367 3°2.547 7.4539 3.075484 29.458325 -2.458615
2012-01-11 07:14:32 51°22.374 3°2.564 7.4467 3.080552 29.510418 -2.458615
2012-01-11 07:14:37 51°22.38 3°2.586 7.4502 3.080552 29.510418 -2.458615
2012-01-11 07:14:42 51°22.388 3°2.607 7.4469 3.076829 29.470994 -2.458615
2012-01-11 07:14:48 51°22.396 3°2.633 7.447 3.077035 29.473184 -2.458615
2012-01-11 07:14:52 51°22.402 3°2.65 7.4469 3.082414 29.529348 -2.458615
2012-01-11 07:14:58 51°22.41 3°2.676 7.4468 3.078897 29.492111 -2.458615
2012-01-11 07:15:03 51°22.417 3°2.697 7.4438 3.076208 29.464423 -2.458615
2012-01-11 07:15:08 51°22.424 3°2.719 7.4428 3.076208 29.464423 -2.458615
2012-01-11 07:15:12 51°22.429 3°2.736 7.4452 3.072898 29.430169 -2.458615
2012-01-11 07:15:17 51°22.437 3°2.757 7.4479 3.078587 29.491178 -2.458615
2012-01-11 07:15:23 51°22.446 3°2.783 7.4484 3.079415 29.49994 -2.458615
2012-01-11 07:15:28 51°22.454 3°2.804 7.4458 3.071553 29.418283 -2.458615
2012-01-11 07:15:32 51°22.46 3°2.821 7.4452 3.073105 29.43549 -2.458615
2012-01-11 07:15:38 51°22.47 3°2.845 7.4456 3.078173 29.489935 -2.458615
2012-01-11 07:15:43 51°22.479 3°2.865 7.4419 3.078173 29.489935 -2.458615
2012-01-11 07:15:48 51°22.488 3°2.886 7.4437 3.073208 29.438151 -2.458615
2012-01-11 07:15:52 51°22.495 3°2.901 7.4475 3.084276 29.554566 -2.458615
2012-01-11 07:15:57 51°22.504 3°2.921 7.4489 3.072381 29.428608 -2.458615
2012-01-11 07:16:03 51°22.515 3°2.945 7.4483 3.079932 29.50934 -2.458615
2012-01-11 07:16:08 51°22.523 3°2.965 7.4488 3.079932 29.50934 -2.458615
2012-01-11 07:16:12 51°22.53 3°2.981 7.448 3.082001 29.531249 -2.458615
2012-01-11 07:16:17 51°22.539 3°3 7.4477 3.080242 29.513411 -2.458615
2012-01-11 07:16:23 51°22.55 3°3.024 7.4495 3.069381 29.397638 -2.458615
2012-01-11 07:16:28 51°22.56 3°3.043 7.4516 3.082001 29.530464 -2.458615
2012-01-11 07:16:32 51°22.567 3°3.06 7.4522 3.071864 29.422351 -2.458615
2012-01-11 07:16:37 51°22.577 3°3.079 7.4557 3.071864 29.422351 -2.458615
2012-01-11 07:16:43 51°22.589 3°3.102 7.4566 3.072381 29.427825 -2.458615
2012-01-11 07:16:48 51°22.599 3°3.121 7.4582 3.083242 29.542824 -2.458615
2012-01-11 07:16:52 51°22.606 3°3.137 7.4542 3.075794 29.463961 -2.458615
2012-01-11 07:16:58 51°22.618 3°3.16 7.4558 3.075484 29.459892 -2.458615
2012-01-11 07:17:02 51°22.625 3°3.176 7.4569 3.074656 29.449565 -2.458615
2012-01-11 07:17:08 51°22.636 3°3.198 7.4579 3.074656 29.449565 -2.458615
2012-01-11 07:17:12 51°22.643 3°3.213 7.4565 3.092759 29.640482 -2.458615
2012-01-11 07:17:17 51°22.652 3°3.233 7.4582 3.083656 29.542492 -2.458615
2012-01-11 07:17:22 51°22.661 3°3.252 7.4543 3.079104 29.492733 -2.458615
2012-01-11 07:17:28 51°22.672 3°3.276 7.4585 3.08107 29.51354 -2.458615
2012-01-11 07:17:32 51°22.679 3°3.292 7.4583 3.073208 29.429541 -2.458615
2012-01-11 07:17:38 51°22.691 3°3.316 7.4608 3.083035 29.532779 -2.458615
2012-01-11 07:17:43 51°22.701 3°3.336 7.4603 3.083035 29.532779 -2.458615
2012-01-11 07:17:48 51°22.71 3°3.356 7.463 3.075691 29.455032 -2.458615
2012-01-11 07:17:52 51°22.718 3°3.371 7.4657 3.079415 29.494449 -2.458615
2012-01-11 07:17:58 51°22.73 3°3.395 7.4666 3.083966 29.542636 -2.458615
2012-01-11 07:18:03 51°22.74 3°3.414 7.4638 3.078277 29.481621 -2.458615
2012-01-11 07:18:08 51°22.75 3°3.434 7.4686 3.078277 29.481621 -2.458615
2012-01-11 07:18:12 51°22.758 3°3.448 7.4677 3.083035 29.531208 -2.458615
2012-01-11 07:18:18 51°22.771 3°3.471 7.4697 3.07507 29.446897 -2.458615
2012-01-11 07:18:23 51°22.782 3°3.489 7.4754 3.080966 29.508522 -2.458615
2012-01-11 07:18:28 51°22.792 3°3.508 7.4781 3.080966 29.507737 -2.458615
2012-01-11 07:18:32 51°22.801 3°3.522 7.4831 3.08169 29.513833 -2.458615
2012-01-11 07:18:37 51°22.812 3°3.54 7.4822 3.08169 29.513833 -2.458615
2012-01-11 07:18:42 51°22.822 3°3.558 7.4793 3.078897 29.483487 -2.458615
2012-01-11 07:18:48 51°22.835 3°3.579 7.4779 3.077863 29.470972 -2.458615
2012-01-11 07:18:52 51°22.843 3°3.594 7.4778 3.082311 29.517264 -2.458615
2012-01-11 07:18:58 51°22.855 3°3.616 7.4766 3.080449 29.495205 -2.458615
2012-01-11 07:19:03 51°22.866 3°3.635 7.4788 3.083552 29.525694 -2.458615
2012-01-11 07:19:08 51°22.876 3°3.653 7.4764 3.088207 29.571821 -2.458615
2012-01-11 07:19:12 51°22.884 3°3.667 7.4788 3.088207 29.571821 -2.458615
2012-01-11 07:19:17 51°22.894 3°3.686 7.4735 3.084173 29.52677 -2.458615
2012-01-11 07:19:23 51°22.907 3°3.708 7.4809 3.081483 29.498312 -2.458615
2012-01-11 07:19:28 51°22.917 3°3.726 7.4778 3.085207 29.538501 -2.458615
2012-01-11 07:19:32 51°22.926 3°3.74 7.4719 3.08438 29.529744 -2.458615
2012-01-11 07:19:38 51°22.939 3°3.761 7.473 3.08438 29.529744 -2.458615
2012-01-11 07:19:43 51°22.949 3°3.78 7.478 3.083966 29.524581 -2.458615
2012-01-11 07:19:48 51°22.96 3°3.797 7.481 3.083449 29.519892 -2.458615
2012-01-11 07:19:52 51°22.968 3°3.812 7.4787 3.080656 29.489557 -2.458615
2012-01-11 07:19:57 51°22.978 3°3.83 7.4809 3.083449 29.519892 -2.458615
2012-01-11 07:20:02 51°22.988 3°3.848 7.4781 3.081069 29.496286 -2.458615
2012-01-11 07:20:08 51°23 3°3.87 7.4765 3.081069 29.496286 -2.458615
2012-01-11 07:20:12 51°23.008 3°3.886 7.4783 3.077035 29.455169 -2.458615
2012-01-11 07:20:17 51°23.018 3°3.904 7.4781 3.086862 29.558373 -2.458615
2012-01-11 07:20:23 51°23.029 3°3.928 7.476 3.077139 29.453915 -2.458615
2012-01-11 07:20:28 51°23.039 3°3.946 7.4774 3.083242 29.516919 -2.458615
2012-01-11 07:20:32 51°23.046 3°3.962 7.4827 3.082931 29.512851 -2.458615
2012-01-11 07:20:36 51°23.055 3°3.977 7.4872 3.082931 29.512851 -2.458615
2012-01-11 07:20:42 51°23.065 3°4 7.4817 3.082 29.504568 -2.458615
2012-01-11 07:20:48 51°23.076 3°4.022 7.4836 3.091207 29.602002 -2.458615
2012-01-11 07:20:52 51°23.084 3°4.038 7.4786 3.077966 29.461887 -2.458615
2012-01-11 07:20:57 51°23.093 3°4.057 7.4758 3.076828 29.44985 -2.458615
2012-01-11 07:21:02 51°23.103 3°4.077 7.4774 3.08138 29.498001 -2.458615
2012-01-11 07:21:08 51°23.114 3°4.101 7.4757 3.079414 29.475641 -2.458615
2012-01-11 07:21:12 51°23.122 3°4.116 7.4771 3.079414 29.475641 -2.458615
2012-01-11 07:21:17 51°23.132 3°4.136 7.4798 3.076001 29.437967 -2.458615
2012-01-11 07:21:22 51°23.143 3°4.154 7.476 3.082104 29.501743 -2.458615
2012-01-11 07:21:28 51°23.155 3°4.176 7.4767 3.07569 29.434685 -2.458615
2012-01-11 07:21:32 51°23.164 3°4.191 7.4747 3.074035 29.418744 -2.458615
2012-01-11 07:21:37 51°23.175 3°4.209 7.4774 3.074035 29.418744 -2.458615
2012-01-11 07:21:42 51°23.186 3°4.227 7.4733 3.08831 29.571344 -2.458615
2012-01-11 07:21:48 51°23.199 3°4.247 7.4729 3.078277 29.465952 -2.458615
2012-01-11 07:21:52 51°23.208 3°4.261 7.4709 3.07476 29.428748 -2.458615
2012-01-11 07:21:58 51°23.221 3°4.283 7.4714 3.076001 29.442661 -2.458615
2012-01-11 07:22:02 51°23.23 3°4.296 7.4733 3.07869 29.471113 -2.458615
2012-01-11 07:22:08 51°23.243 3°4.317 7.4662 3.07869 29.471113 -2.458615
2012-01-11 07:22:12 51°23.252 3°4.331 7.4666 3.076208 29.444849 -2.458615
2012-01-11 07:22:18 51°23.266 3°4.352 7.4647 3.076001 29.443443 -2.458615
2012-01-11 07:22:23 51°23.277 3°4.369 7.463 3.076208 29.447197 -2.458615
2012-01-11 07:22:28 51°23.288 3°4.387 7.4669 3.075173 29.437036 -2.458615
2012-01-11 07:22:32 51°23.297 3°4.401 7.4633 3.071863 29.402801 -2.458615
2012-01-11 07:22:38 51°23.309 3°4.422 7.4632 3.073622 29.422185 -2.458615
2012-01-11 07:22:43 51°23.321 3°4.44 7.4625 3.073622 29.422185 -2.458615
2012-01-11 07:22:48 51°23.331 3°4.458 7.4661 3.08107 29.502557 -2.458615
2012-01-11 07:22:52 51°23.34 3°4.473 7.4617 3.08107 29.503342 -2.458615
2012-01-11 07:22:56 51°23.348 3°4.488 7.462 3.074139 29.431568 -2.458615
2012-01-11 07:23:02 51°23.361 3°4.509 7.4643 3.073415 29.423907 -2.458615
2012-01-11 07:23:08 51°23.374 3°4.532 7.4697 3.07207 29.409679 -2.458615
2012-01-11 07:23:12 51°23.382 3°4.546 7.4604 3.07207 29.409679 -2.458615
2012-01-11 07:23:17 51°23.392 3°4.565 7.463 3.080552 29.50022 -2.458615
2012-01-11 07:23:22 51°23.402 3°4.584 7.4623 3.068657 29.374349 -2.458615
2012-01-11 07:23:28 51°23.415 3°4.607 7.4607 3.066278 29.349964 -2.458615
2012-01-11 07:23:32 51°23.423 3°4.621 7.4643 3.064002 29.325895 -2.458615
2012-01-11 07:23:37 51°23.432 3°4.641 7.4579 3.064002 29.325895 -2.458615
2012-01-11 07:23:43 51°23.444 3°4.664 7.4596 3.075794 29.449863 -2.458615
2012-01-11 07:23:48 51°23.455 3°4.682 7.4584 3.07538 29.445485 -2.458615
2012-01-11 07:23:52 51°23.463 3°4.697 7.462 3.070932 29.399205 -2.458615
2012-01-11 07:23:57 51°23.472 3°4.716 7.459 3.073001 29.421875 -2.458615
2012-01-11 07:24:03 51°23.484 3°4.739 7.455 3.064209 29.329642 -2.458615
2012-01-11 07:24:08 51°23.494 3°4.758 7.4548 3.064209 29.329642 -2.458615
2012-01-11 07:24:12 51°23.501 3°4.774 7.4557 3.078794 29.484744 -2.458615
2012-01-11 07:24:18 51°23.513 3°4.797 7.4577 3.06214 29.30932 -2.458615
2012-01-11 07:24:22 51°23.52 3°4.812 7.4567 3.060692 29.294005 -2.458615
2012-01-11 07:24:28 51°23.532 3°4.835 7.4544 3.062451 29.312602 -2.458615
2012-01-11 07:24:32 51°23.54 3°4.85 7.4585 3.061313 29.301347 -2.458615
2012-01-11 07:24:38 51°23.552 3°4.872 7.4511 3.066588 29.358709 -2.458615
2012-01-11 07:24:43 51°23.562 3°4.89 7.45 3.066588 29.358709 -2.458615
2012-01-11 07:24:48 51°23.573 3°4.907 7.4483 3.065347 29.346358 -2.458615
2012-01-11 07:24:52 51°23.581 3°4.922 7.4501 3.059554 29.285865 -2.458615